Time,TemperatureF,DewpointF,PressureIn,WindDirection,WindDirectionDegrees,WindSpeedMPH,WindSpeedGustMPH,Humidity,HourlyPrecipIn,Conditions,Clouds,dailyrainin,SoftwareType,DateUTC
2013-05-14 00:00:00,49.4,32.5,30.04,SSE,158,1.0,3.0,52,0.00,,---,0.00,VWS V14.00,2013-05-14 04:00:00,
2013-05-14 00:01:00,49.4,32.5,30.04,SSE,158,0.0,3.0,52,0.00,,---,0.00,VWS V14.00,2013-05-14 04:01:00,
2013-05-14 00:02:00,49.5,33.1,30.03,SSE,159,0.0,5.0,53,0.00,,---,0.00,VWS V14.00,2013-05-14 04:02:00,
2013-05-14 00:03:00,49.5,33.1,30.04,SSE,159,0.0,5.0,53,0.00,,---,0.00,VWS V14.00,2013-05-14 04:03:00,
2013-05-14 00:06:00,49.6,32.7,30.03,SSE,161,5.0,5.0,52,0.00,,---,0.00,VWS V14.00,2013-05-14 04:06:00,
2013-05-14 00:07:00,49.6,32.7,30.03,SSE,162,4.0,6.0,52,0.00,,---,0.00,VWS V14.00,2013-05-14 04:07:00,
2013-05-14 00:08:00,49.6,32.7,30.03,SSE,163,3.0,6.0,52,0.00,,---,0.00,VWS V14.00,2013-05-14 04:08:00,
2013-05-14 00:10:00,49.6,32.2,30.03,SSE,167,2.0,6.0,51,0.00,,---,0.00,VWS V14.00,2013-05-14 04:10:00,
2013-05-14 00:13:00,49.6,32.2,30.03,South,169,4.0,7.0,51,0.00,,---,0.00,VWS V14.00,2013-05-14 04:13:00,
2013-05-14 00:15:00,49.6,32.2,30.03,South,172,6.0,7.0,51,0.00,,---,0.00,VWS V14.00,2013-05-14 04:15:00,
2013-05-14 00:17:00,49.6,32.2,30.04,South,172,3.0,7.0,51,0.00,,---,0.00,VWS V14.00,2013-05-14 04:17:00,
2013-05-14 00:20:00,49.7,31.8,30.03,South,173,4.0,7.0,50,0.00,,---,0.00,VWS V14.00,2013-05-14 04:20:00,
2013-05-14 00:21:00,49.7,31.8,30.03,South,173,5.0,7.0,50,0.00,,---,0.00,VWS V14.00,2013-05-14 04:21:00,
2013-05-14 00:23:00,49.7,31.8,30.04,South,174,3.0,7.0,50,0.00,,---,0.00,VWS V14.00,2013-05-14 04:23:00,
2013-05-14 00:24:00,49.7,31.3,30.04,South,175,2.0,7.0,49,0.00,,---,0.00,VWS V14.00,2013-05-14 04:24:00,
2013-05-14 00:26:00,49.7,31.3,30.03,South,175,2.0,7.0,49,0.00,,---,0.00,VWS V14.00,2013-05-14 04:26:00,
2013-05-14 00:28:00,49.7,31.3,30.03,South,175,0.0,7.0,49,0.00,,---,0.00,VWS V14.00,2013-05-14 04:28:00,
2013-05-14 00:31:00,49.5,31.1,30.03,South,174,0.0,0.0,49,0.00,,---,0.00,VWS V14.00,2013-05-14 04:31:00,
2013-05-14 00:32:00,49.4,31.1,30.03,South,175,0.0,0.0,49,0.00,,---,0.00,VWS V14.00,2013-05-14 04:32:00,
2013-05-14 00:33:00,49.4,31.6,30.03,South,175,0.0,0.0,50,0.00,,---,0.00,VWS V14.00,2013-05-14 04:33:00,
2013-05-14 00:35:00,49.3,31.0,30.04,South,175,0.0,0.0,49,0.00,,---,0.00,VWS V14.00,2013-05-14 04:35:00,
2013-05-14 00:37:00,49.2,30.9,30.04,South,175,0.0,0.0,49,0.00,,---,0.00,VWS V14.00,2013-05-14 04:37:00,
2013-05-14 00:38:00,49.2,30.9,30.04,South,173,0.0,0.0,49,0.00,,---,0.00,VWS V14.00,2013-05-14 04:38:00,
2013-05-14 00:40:00,49.2,30.9,30.04,South,175,0.0,0.0,49,0.00,,---,0.00,VWS V14.00,2013-05-14 04:40:00,
2013-05-14 00:42:00,49.2,30.9,30.04,South,175,0.0,0.0,49,0.00,,---,0.00,VWS V14.00,2013-05-14 04:42:00,
2013-05-14 00:43:00,49.2,30.9,30.04,South,174,0.0,0.0,49,0.00,,---,0.00,VWS V14.00,2013-05-14 04:43:00,
2013-05-14 00:44:00,49.3,31.5,30.04,South,175,0.0,0.0,50,0.00,,---,0.00,VWS V14.00,2013-05-14 04:44:00,
2013-05-14 00:46:00,49.3,31.5,30.04,South,175,0.0,0.0,50,0.00,,---,0.00,VWS V14.00,2013-05-14 04:46:00,
2013-05-14 00:47:00,49.4,31.6,30.04,South,175,0.0,0.0,50,0.00,,---,0.00,VWS V14.00,2013-05-14 04:47:00,
2013-05-14 00:48:00,49.4,31.6,30.04,South,175,0.0,0.0,50,0.00,,---,0.00,VWS V14.00,2013-05-14 04:48:00,
2013-05-14 00:50:00,49.5,32.1,30.03,South,175,0.0,0.0,51,0.00,,---,0.00,VWS V14.00,2013-05-14 04:50:00,
2013-05-14 00:52:00,49.5,32.1,30.03,South,175,3.0,4.0,51,0.00,,---,0.00,VWS V14.00,2013-05-14 04:52:00,
2013-05-14 00:53:00,49.6,32.2,30.03,South,175,0.0,4.0,51,0.00,,---,0.00,VWS V14.00,2013-05-14 04:53:00,
2013-05-14 00:54:00,49.6,31.7,30.03,South,175,0.0,4.0,50,0.00,,---,0.00,VWS V14.00,2013-05-14 04:54:00,
2013-05-14 00:55:00,49.6,31.7,30.03,South,175,0.0,4.0,50,0.00,,---,0.00,VWS V14.00,2013-05-14 04:55:00,
2013-05-14 00:58:00,49.6,31.7,30.03,South,175,0.0,4.0,50,0.00,,---,0.00,VWS V14.00,2013-05-14 04:58:00,
2013-05-14 00:59:00,49.7,31.8,30.03,South,175,0.0,0.0,50,0.00,,---,0.00,VWS V14.00,2013-05-14 04:59:00,
2013-05-14 01:00:00,49.7,31.8,30.03,South,175,0.0,0.0,50,0.00,,---,0.00,VWS V14.00,2013-05-14 05:00:00,
2013-05-14 01:01:00,49.7,31.8,30.03,South,175,0.0,0.0,50,0.00,,---,0.00,VWS V14.00,2013-05-14 05:01:00,
2013-05-14 01:03:00,49.7,31.8,30.03,South,175,0.0,0.0,50,0.00,,---,0.00,VWS V14.00,2013-05-14 05:03:00,
2013-05-14 01:04:00,49.7,31.8,30.03,South,175,0.0,0.0,50,0.00,,---,0.00,VWS V14.00,2013-05-14 05:04:00,
2013-05-14 01:06:00,49.7,31.8,30.03,South,175,0.0,0.0,50,0.00,,---,0.00,VWS V14.00,2013-05-14 05:06:00,
2013-05-14 01:07:00,49.7,31.8,30.03,South,175,0.0,2.0,50,0.00,,---,0.00,VWS V14.00,2013-05-14 05:07:00,
2013-05-14 01:09:00,49.8,31.9,30.03,South,175,0.0,2.0,50,0.00,,---,0.00,VWS V14.00,2013-05-14 05:09:00,
2013-05-14 01:10:00,49.8,31.9,30.03,South,175,0.0,2.0,50,0.00,,---,0.00,VWS V14.00,2013-05-14 05:10:00,
2013-05-14 01:12:00,49.8,31.9,30.03,South,175,0.0,2.0,50,0.00,,---,0.00,VWS V14.00,2013-05-14 05:12:00,
2013-05-14 01:13:00,49.8,31.9,30.03,South,175,0.0,2.0,50,0.00,,---,0.00,VWS V14.00,2013-05-14 05:13:00,
2013-05-14 01:14:00,49.9,32.0,30.03,South,175,0.0,2.0,50,0.00,,---,0.00,VWS V14.00,2013-05-14 05:14:00,
2013-05-14 01:15:00,49.9,32.0,30.03,South,175,0.0,2.0,50,0.00,,---,0.00,VWS V14.00,2013-05-14 05:15:00,
2013-05-14 01:17:00,49.9,32.0,30.03,South,175,1.0,2.0,50,0.00,,---,0.00,VWS V14.00,2013-05-14 05:17:00,
2013-05-14 01:20:00,49.9,32.5,30.03,South,175,0.0,3.0,51,0.00,,---,0.00,VWS V14.00,2013-05-14 05:20:00,
2013-05-14 01:21:00,49.9,32.5,30.03,South,175,0.0,3.0,51,0.00,,---,0.00,VWS V14.00,2013-05-14 05:21:00,
2013-05-14 01:22:00,50.0,32.6,30.03,South,175,0.0,3.0,51,0.00,,---,0.00,VWS V14.00,2013-05-14 05:22:00,
2013-05-14 01:23:00,50.0,32.6,30.03,South,175,0.0,3.0,51,0.00,,---,0.00,VWS V14.00,2013-05-14 05:23:00,
2013-05-14 01:26:00,50.1,32.2,30.03,South,175,3.0,4.0,50,0.00,,---,0.00,VWS V14.00,2013-05-14 05:26:00,
2013-05-14 01:27:00,50.1,32.2,30.03,South,175,1.0,4.0,50,0.00,,---,0.00,VWS V14.00,2013-05-14 05:27:00,
2013-05-14 01:28:00,50.1,32.2,30.02,South,175,0.0,4.0,50,0.00,,---,0.00,VWS V14.00,2013-05-14 05:28:00,
2013-05-14 01:32:00,50.1,32.2,30.02,South,175,0.0,4.0,50,0.00,,---,0.00,VWS V14.00,2013-05-14 05:32:00,
2013-05-14 01:33:00,50.1,32.2,30.02,South,175,1.0,4.0,50,0.00,,---,0.00,VWS V14.00,2013-05-14 05:33:00,
2013-05-14 01:34:00,50.1,32.2,30.02,South,175,1.0,4.0,50,0.00,,---,0.00,VWS V14.00,2013-05-14 05:34:00,
2013-05-14 01:35:00,50.1,32.2,30.02,South,175,3.0,4.0,50,0.00,,---,0.00,VWS V14.00,2013-05-14 05:35:00,
2013-05-14 01:38:00,50.1,32.2,30.02,South,175,2.0,4.0,50,0.00,,---,0.00,VWS V14.00,2013-05-14 05:38:00,
2013-05-14 01:39:00,50.1,32.2,30.02,South,175,1.0,4.0,50,0.00,,---,0.00,VWS V14.00,2013-05-14 05:39:00,
2013-05-14 01:40:00,50.1,32.2,30.02,South,175,2.0,4.0,50,0.00,,---,0.00,VWS V14.00,2013-05-14 05:40:00,
2013-05-14 01:43:00,50.1,32.2,30.02,South,175,2.0,5.0,50,0.00,,---,0.00,VWS V14.00,2013-05-14 05:43:00,
2013-05-14 01:44:00,50.1,32.2,30.02,South,175,2.0,5.0,50,0.00,,---,0.00,VWS V14.00,2013-05-14 05:44:00,
2013-05-14 01:46:00,50.2,32.3,30.02,South,175,3.0,5.0,50,0.00,,---,0.00,VWS V14.00,2013-05-14 05:46:00,
2013-05-14 01:47:00,50.3,32.9,30.02,South,175,0.0,5.0,51,0.00,,---,0.00,VWS V14.00,2013-05-14 05:47:00,
2013-05-14 01:49:00,50.3,32.4,30.02,South,175,2.0,5.0,50,0.00,,---,0.00,VWS V14.00,2013-05-14 05:49:00,
2013-05-14 01:50:00,50.4,32.5,30.02,South,175,1.0,5.0,50,0.00,,---,0.00,VWS V14.00,2013-05-14 05:50:00,
2013-05-14 01:51:00,50.4,32.5,30.02,South,175,2.0,5.0,50,0.00,,---,0.00,VWS V14.00,2013-05-14 05:51:00,
2013-05-14 01:52:00,50.4,32.5,30.02,South,175,0.0,5.0,50,0.00,,---,0.00,VWS V14.00,2013-05-14 05:52:00,
2013-05-14 01:54:00,50.5,32.6,30.02,South,175,0.0,5.0,50,0.00,,---,0.00,VWS V14.00,2013-05-14 05:54:00,
2013-05-14 01:55:00,50.5,32.6,30.02,South,175,0.0,5.0,50,0.00,,---,0.00,VWS V14.00,2013-05-14 05:55:00,
2013-05-14 01:56:00,50.5,32.6,30.02,South,175,0.0,5.0,50,0.00,,---,0.00,VWS V14.00,2013-05-14 05:56:00,
2013-05-14 01:57:00,50.5,32.1,30.01,South,174,3.0,5.0,49,0.00,,---,0.00,VWS V14.00,2013-05-14 05:57:00,
2013-05-14 01:59:00,50.5,32.6,30.02,South,174,0.0,0.0,50,0.00,,---,0.00,VWS V14.00,2013-05-14 05:59:00,
2013-05-14 02:00:00,50.5,32.6,30.02,South,174,0.0,1.0,50,0.00,,---,0.00,VWS V14.00,2013-05-14 06:00:00,
2013-05-14 02:01:00,50.6,32.7,30.02,South,174,0.0,1.0,50,0.00,,---,0.00,VWS V14.00,2013-05-14 06:01:00,
2013-05-14 02:02:00,50.6,32.2,30.02,South,174,0.0,3.0,49,0.00,,---,0.00,VWS V14.00,2013-05-14 06:02:00,
2013-05-14 02:03:00,50.6,32.2,30.02,South,174,0.0,3.0,49,0.00,,---,0.00,VWS V14.00,2013-05-14 06:03:00,
2013-05-14 02:05:00,50.7,32.2,30.01,South,174,0.0,3.0,49,0.00,,---,0.00,VWS V14.00,2013-05-14 06:05:00,
2013-05-14 02:06:00,50.7,32.2,30.01,South,174,0.0,3.0,49,0.00,,---,0.00,VWS V14.00,2013-05-14 06:06:00,
2013-05-14 02:07:00,50.7,32.2,30.01,South,173,0.0,3.0,49,0.00,,---,0.00,VWS V14.00,2013-05-14 06:07:00,
2013-05-14 02:09:00,50.7,32.2,30.01,SSE,152,6.0,6.0,49,0.00,,---,0.00,VWS V14.00,2013-05-14 06:09:00,
2013-05-14 02:10:00,50.6,31.6,30.01,SE,137,6.0,7.0,48,0.00,,---,0.00,VWS V14.00,2013-05-14 06:10:00,
2013-05-14 02:11:00,50.6,31.6,30.01,SE,137,5.0,7.0,48,0.00,,---,0.00,VWS V14.00,2013-05-14 06:11:00,
2013-05-14 02:14:00,50.4,32.0,30.00,SE,142,6.0,7.0,49,0.00,,---,0.00,VWS V14.00,2013-05-14 06:14:00,
2013-05-14 02:15:00,50.3,32.4,29.99,SE,142,5.0,7.0,50,0.00,,---,0.00,VWS V14.00,2013-05-14 06:15:00,
2013-05-14 02:18:00,50.2,31.3,29.99,SSE,149,5.0,10.0,48,0.00,,---,0.00,VWS V14.00,2013-05-14 06:18:00,
2013-05-14 02:19:00,50.2,31.3,29.99,SSE,152,7.0,10.0,48,0.00,,---,0.00,VWS V14.00,2013-05-14 06:19:00,
2013-05-14 02:20:00,50.3,31.9,29.99,SSE,153,4.0,10.0,49,0.00,,---,0.00,VWS V14.00,2013-05-14 06:20:00,
2013-05-14 02:21:00,50.4,32.0,29.99,South,180,4.0,11.0,49,0.00,,---,0.00,VWS V14.00,2013-05-14 06:21:00,
2013-05-14 02:22:00,50.5,33.1,29.99,South,184,10.0,11.0,51,0.00,,---,0.00,VWS V14.00,2013-05-14 06:22:00,
2013-05-14 02:23:00,50.6,33.2,29.99,South,172,4.0,11.0,51,0.00,,---,0.00,VWS V14.00,2013-05-14 06:23:00,
2013-05-14 02:24:00,50.7,33.2,29.99,SSE,168,6.0,11.0,51,0.00,,---,0.00,VWS V14.00,2013-05-14 06:24:00,
2013-05-14 02:28:00,50.9,32.4,29.99,South,184,9.0,11.0,49,0.00,,---,0.00,VWS V14.00,2013-05-14 06:28:00,
2013-05-14 02:29:00,50.9,32.4,29.99,South,178,5.0,6.0,49,0.00,,---,0.00,VWS V14.00,2013-05-14 06:29:00,
2013-05-14 02:30:00,50.9,32.4,29.99,South,175,7.0,7.0,49,0.00,,---,0.00,VWS V14.00,2013-05-14 06:30:00,
2013-05-14 02:34:00,50.9,33.4,29.99,South,171,4.0,10.0,51,0.00,,---,0.00,VWS V14.00,2013-05-14 06:34:00,
2013-05-14 02:35:00,50.8,32.8,29.99,South,178,6.0,10.0,50,0.00,,---,0.00,VWS V14.00,2013-05-14 06:35:00,
2013-05-14 02:36:00,50.8,32.8,29.99,South,180,2.0,10.0,50,0.00,,---,0.00,VWS V14.00,2013-05-14 06:36:00,
2013-05-14 02:37:00,50.8,32.8,29.99,South,178,3.0,10.0,50,0.00,,---,0.00,VWS V14.00,2013-05-14 06:37:00,
2013-05-14 02:40:00,50.8,32.8,29.99,South,175,4.0,10.0,50,0.00,,---,0.00,VWS V14.00,2013-05-14 06:40:00,
2013-05-14 02:42:00,50.8,32.8,29.99,South,180,3.0,10.0,50,0.00,,---,0.00,VWS V14.00,2013-05-14 06:42:00,
2013-05-14 02:43:00,50.8,32.3,29.98,SSE,167,3.0,10.0,49,0.00,,---,0.00,VWS V14.00,2013-05-14 06:43:00,
2013-05-14 02:45:00,50.9,32.4,29.98,South,170,5.0,10.0,49,0.00,,---,0.00,VWS V14.00,2013-05-14 06:45:00,
2013-05-14 02:46:00,51.0,32.5,29.98,South,175,6.0,10.0,49,0.00,,---,0.00,VWS V14.00,2013-05-14 06:46:00,
2013-05-14 02:48:00,51.0,32.0,29.98,SSE,168,3.0,10.0,48,0.00,,---,0.00,VWS V14.00,2013-05-14 06:48:00,
2013-05-14 02:49:00,51.1,32.6,29.98,South,178,7.0,10.0,49,0.00,,---,0.00,VWS V14.00,2013-05-14 06:49:00,
2013-05-14 02:51:00,51.2,33.2,29.98,South,175,6.0,10.0,50,0.00,,---,0.00,VWS V14.00,2013-05-14 06:51:00,
2013-05-14 02:53:00,51.3,33.3,29.97,South,175,7.0,10.0,50,0.00,,---,0.00,VWS V14.00,2013-05-14 06:53:00,
2013-05-14 02:54:00,51.4,33.4,29.97,South,179,5.0,10.0,50,0.00,,---,0.00,VWS V14.00,2013-05-14 06:54:00,
2013-05-14 02:55:00,51.4,33.4,29.97,South,169,5.0,11.0,50,0.00,,---,0.00,VWS V14.00,2013-05-14 06:55:00,
2013-05-14 02:57:00,51.3,32.3,29.98,South,179,4.0,11.0,48,0.00,,---,0.00,VWS V14.00,2013-05-14 06:57:00,
2013-05-14 02:58:00,51.3,32.3,29.98,South,169,4.0,5.0,48,0.00,,---,0.00,VWS V14.00,2013-05-14 06:58:00,
2013-05-14 02:59:00,51.3,32.8,29.98,South,172,7.0,8.0,49,0.00,,---,0.00,VWS V14.00,2013-05-14 06:59:00,
2013-05-14 03:01:00,51.3,32.8,29.98,South,170,10.0,10.0,49,0.00,,---,0.00,VWS V14.00,2013-05-14 07:01:00,
2013-05-14 03:03:00,51.3,32.8,29.97,South,178,5.0,10.0,49,0.00,,---,0.00,VWS V14.00,2013-05-14 07:03:00,
2013-05-14 03:04:00,51.3,32.8,29.97,South,178,4.0,10.0,49,0.00,,---,0.00,VWS V14.00,2013-05-14 07:04:00,
2013-05-14 03:06:00,51.3,32.8,29.97,South,188,7.0,10.0,49,0.00,,---,0.00,VWS V14.00,2013-05-14 07:06:00,
2013-05-14 03:07:00,51.3,33.3,29.97,South,180,5.0,10.0,50,0.00,,---,0.00,VWS V14.00,2013-05-14 07:07:00,
2013-05-14 03:09:00,51.3,33.3,29.97,South,175,4.0,10.0,50,0.00,,---,0.00,VWS V14.00,2013-05-14 07:09:00,
2013-05-14 03:10:00,51.3,33.3,29.97,SSE,167,7.0,10.0,50,0.00,,---,0.00,VWS V14.00,2013-05-14 07:10:00,
2013-05-14 03:13:00,51.3,33.3,29.97,SSE,163,3.0,10.0,50,0.00,,---,0.00,VWS V14.00,2013-05-14 07:13:00,
2013-05-14 03:14:00,51.3,33.8,29.97,SSE,160,3.0,10.0,51,0.00,,---,0.00,VWS V14.00,2013-05-14 07:14:00,
2013-05-14 03:15:00,51.3,33.8,29.97,South,173,5.0,10.0,51,0.00,,---,0.00,VWS V14.00,2013-05-14 07:15:00,
2013-05-14 03:16:00,51.3,33.8,29.97,South,170,6.0,10.0,51,0.00,,---,0.00,VWS V14.00,2013-05-14 07:16:00,
2013-05-14 03:17:00,51.3,33.8,29.97,South,180,9.0,10.0,51,0.00,,---,0.00,VWS V14.00,2013-05-14 07:17:00,
2013-05-14 03:18:00,51.3,33.3,29.97,South,181,3.0,10.0,50,0.00,,---,0.00,VWS V14.00,2013-05-14 07:18:00,
2013-05-14 03:20:00,51.3,33.8,29.97,SSE,162,5.0,10.0,51,0.00,,---,0.00,VWS V14.00,2013-05-14 07:20:00,
2013-05-14 03:21:00,51.3,33.8,29.97,SSE,163,4.0,10.0,51,0.00,,---,0.00,VWS V14.00,2013-05-14 07:21:00,
2013-05-14 03:22:00,51.3,32.8,29.97,SSE,163,2.0,10.0,49,0.00,,---,0.00,VWS V14.00,2013-05-14 07:22:00,
2013-05-14 03:23:00,51.3,33.3,29.97,SSE,163,4.0,10.0,50,0.00,,---,0.00,VWS V14.00,2013-05-14 07:23:00,
2013-05-14 03:24:00,51.3,33.3,29.97,SSE,151,5.0,10.0,50,0.00,,---,0.00,VWS V14.00,2013-05-14 07:24:00,
2013-05-14 03:26:00,51.2,33.7,29.97,SSE,167,5.0,10.0,51,0.00,,---,0.00,VWS V14.00,2013-05-14 07:26:00,
2013-05-14 03:28:00,51.2,33.7,29.97,SSE,160,5.0,10.0,51,0.00,,---,0.00,VWS V14.00,2013-05-14 07:28:00,
2013-05-14 03:29:00,51.2,32.7,29.96,SSE,155,3.0,6.0,49,0.00,,---,0.00,VWS V14.00,2013-05-14 07:29:00,
2013-05-14 03:31:00,51.0,32.5,29.97,SSE,151,3.0,6.0,49,0.00,,---,0.00,VWS V14.00,2013-05-14 07:31:00,
2013-05-14 03:33:00,51.0,33.0,29.97,SSE,157,2.0,6.0,50,0.00,,---,0.00,VWS V14.00,2013-05-14 07:33:00,
2013-05-14 03:34:00,51.0,33.0,29.97,SSE,158,4.0,6.0,50,0.00,,---,0.00,VWS V14.00,2013-05-14 07:34:00,
2013-05-14 03:35:00,50.9,33.4,29.97,South,172,2.0,7.0,51,0.00,,---,0.00,VWS V14.00,2013-05-14 07:35:00,
2013-05-14 03:36:00,50.9,32.9,29.97,South,175,3.0,7.0,50,0.00,,---,0.00,VWS V14.00,2013-05-14 07:36:00,
2013-05-14 03:39:00,50.9,33.4,29.97,South,175,0.0,7.0,51,0.00,,---,0.00,VWS V14.00,2013-05-14 07:39:00,
2013-05-14 03:40:00,50.9,32.9,29.97,South,175,5.0,7.0,50,0.00,,---,0.00,VWS V14.00,2013-05-14 07:40:00,
2013-05-14 03:42:00,51.0,34.0,29.97,South,175,2.0,7.0,52,0.00,,---,0.00,VWS V14.00,2013-05-14 07:42:00,
2013-05-14 03:44:00,50.9,32.9,29.98,South,173,4.0,7.0,50,0.00,,---,0.00,VWS V14.00,2013-05-14 07:44:00,
2013-05-14 03:45:00,50.9,32.9,29.98,SSE,168,4.0,7.0,50,0.00,,---,0.00,VWS V14.00,2013-05-14 07:45:00,
2013-05-14 03:46:00,50.8,32.8,29.98,SSE,155,3.0,7.0,50,0.00,,---,0.00,VWS V14.00,2013-05-14 07:46:00,
2013-05-14 03:48:00,50.7,32.8,29.98,SSE,153,3.0,7.0,50,0.00,,---,0.00,VWS V14.00,2013-05-14 07:48:00,
2013-05-14 03:50:00,50.6,33.2,29.98,SSE,156,4.0,7.0,51,0.00,,---,0.00,VWS V14.00,2013-05-14 07:50:00,
2013-05-14 03:51:00,50.6,32.7,29.98,SSE,150,5.0,7.0,50,0.00,,---,0.00,VWS V14.00,2013-05-14 07:51:00,
2013-05-14 03:54:00,50.5,32.6,29.98,SSE,148,4.0,7.0,50,0.00,,---,0.00,VWS V14.00,2013-05-14 07:54:00,
2013-05-14 03:56:00,50.5,32.6,29.98,SE,142,6.0,7.0,50,0.00,,---,0.00,VWS V14.00,2013-05-14 07:56:00,
2013-05-14 03:57:00,50.5,32.6,29.98,SE,142,4.0,7.0,50,0.00,,---,0.00,VWS V14.00,2013-05-14 07:57:00,
2013-05-14 03:59:00,50.5,32.6,29.98,SE,143,4.0,6.0,50,0.00,,---,0.00,VWS V14.00,2013-05-14 07:59:00,
2013-05-14 04:02:00,50.5,32.6,29.98,SE,142,6.0,9.0,50,0.00,,---,0.00,VWS V14.00,2013-05-14 08:02:00,
2013-05-14 04:03:00,50.5,32.6,29.98,SE,146,5.0,9.0,50,0.00,,---,0.00,VWS V14.00,2013-05-14 08:03:00,
2013-05-14 04:06:00,50.6,34.1,29.97,SSE,149,3.0,9.0,53,0.00,,---,0.00,VWS V14.00,2013-05-14 08:06:00,
2013-05-14 04:07:00,50.6,34.1,29.97,SSE,149,5.0,9.0,53,0.00,,---,0.00,VWS V14.00,2013-05-14 08:07:00,
2013-05-14 04:08:00,50.6,34.1,29.97,SSE,153,3.0,9.0,53,0.00,,---,0.00,VWS V14.00,2013-05-14 08:08:00,
2013-05-14 04:09:00,50.7,34.7,29.97,South,173,5.0,9.0,54,0.00,,---,0.00,VWS V14.00,2013-05-14 08:09:00,
2013-05-14 04:11:00,50.7,34.7,29.97,South,173,5.0,9.0,54,0.00,,---,0.00,VWS V14.00,2013-05-14 08:11:00,
2013-05-14 04:13:00,50.7,34.7,29.96,SSE,167,3.0,9.0,54,0.00,,---,0.00,VWS V14.00,2013-05-14 08:13:00,
2013-05-14 04:14:00,50.7,34.7,29.96,SSE,167,2.0,9.0,54,0.00,,---,0.00,VWS V14.00,2013-05-14 08:14:00,
2013-05-14 04:15:00,50.7,34.7,29.96,South,169,3.0,9.0,54,0.00,,---,0.00,VWS V14.00,2013-05-14 08:15:00,
2013-05-14 04:16:00,50.7,34.7,29.96,South,169,2.0,9.0,54,0.00,,---,0.00,VWS V14.00,2013-05-14 08:16:00,
2013-05-14 04:19:00,50.7,34.7,29.96,South,180,3.0,9.0,54,0.00,,---,0.00,VWS V14.00,2013-05-14 08:19:00,
2013-05-14 04:20:00,50.8,35.7,29.96,SSE,164,3.0,9.0,56,0.00,,---,0.00,VWS V14.00,2013-05-14 08:20:00,
2013-05-14 04:21:00,50.8,35.7,29.96,SSE,164,4.0,9.0,56,0.00,,---,0.00,VWS V14.00,2013-05-14 08:21:00,
2013-05-14 04:22:00,50.8,35.2,29.96,SSE,161,6.0,9.0,55,0.00,,---,0.00,VWS V14.00,2013-05-14 08:22:00,
2013-05-14 04:24:00,50.8,34.8,29.96,SSE,157,4.0,11.0,54,0.00,,---,0.00,VWS V14.00,2013-05-14 08:24:00,
2013-05-14 04:26:00,50.7,34.2,29.96,SSE,153,5.0,11.0,53,0.00,,---,0.00,VWS V14.00,2013-05-14 08:26:00,
2013-05-14 04:27:00,50.7,35.1,29.96,SSE,153,4.0,11.0,55,0.00,,---,0.00,VWS V14.00,2013-05-14 08:27:00,
2013-05-14 04:28:00,50.7,35.1,29.96,SSE,155,6.0,11.0,55,0.00,,---,0.00,VWS V14.00,2013-05-14 08:28:00,
2013-05-14 04:31:00,50.7,34.7,29.96,SSE,156,4.0,7.0,54,0.00,,---,0.00,VWS V14.00,2013-05-14 08:31:00,
2013-05-14 04:32:00,50.7,34.7,29.96,SSE,159,2.0,7.0,54,0.00,,---,0.00,VWS V14.00,2013-05-14 08:32:00,
2013-05-14 04:33:00,50.7,34.7,29.96,SSE,159,3.0,7.0,54,0.00,,---,0.00,VWS V14.00,2013-05-14 08:33:00,
2013-05-14 04:35:00,50.7,34.7,29.96,SSE,161,1.0,7.0,54,0.00,,---,0.00,VWS V14.00,2013-05-14 08:35:00,
2013-05-14 04:36:00,50.8,35.2,29.96,SSE,161,4.0,7.0,55,0.00,,---,0.00,VWS V14.00,2013-05-14 08:36:00,
2013-05-14 04:37:00,50.8,34.8,29.96,SSE,162,3.0,7.0,54,0.00,,---,0.00,VWS V14.00,2013-05-14 08:37:00,
2013-05-14 04:38:00,50.8,34.8,29.96,South,172,6.0,9.0,54,0.00,,---,0.00,VWS V14.00,2013-05-14 08:38:00,
2013-05-14 04:39:00,50.8,34.8,29.96,South,172,4.0,9.0,54,0.00,,---,0.00,VWS V14.00,2013-05-14 08:39:00,
2013-05-14 04:40:00,50.8,34.8,29.96,South,176,5.0,9.0,54,0.00,,---,0.00,VWS V14.00,2013-05-14 08:40:00,
2013-05-14 04:43:00,50.9,35.3,29.96,South,178,4.0,9.0,55,0.00,,---,0.00,VWS V14.00,2013-05-14 08:43:00,
2013-05-14 04:44:00,50.9,34.4,29.96,South,178,2.0,9.0,53,0.00,,---,0.00,VWS V14.00,2013-05-14 08:44:00,
2013-05-14 04:46:00,51.0,35.4,29.95,South,177,3.0,9.0,55,0.00,,---,0.00,VWS V14.00,2013-05-14 08:46:00,
2013-05-14 04:49:00,51.0,35.4,29.95,South,170,3.0,9.0,55,0.00,,---,0.00,VWS V14.00,2013-05-14 08:49:00,
2013-05-14 04:50:00,51.0,35.4,29.95,South,169,3.0,9.0,55,0.00,,---,0.00,VWS V14.00,2013-05-14 08:50:00,
2013-05-14 04:52:00,51.0,35.0,29.95,SSE,167,3.0,9.0,54,0.00,,---,0.00,VWS V14.00,2013-05-14 08:52:00,
2013-05-14 04:53:00,51.0,35.4,29.95,South,173,4.0,9.0,55,0.00,,---,0.00,VWS V14.00,2013-05-14 08:53:00,
2013-05-14 04:54:00,51.0,34.5,29.95,South,171,4.0,9.0,53,0.00,,---,0.00,VWS V14.00,2013-05-14 08:54:00,
2013-05-14 04:56:00,51.0,34.5,29.95,South,180,6.0,9.0,53,0.00,,---,0.00,VWS V14.00,2013-05-14 08:56:00,
2013-05-14 04:58:00,51.0,35.0,29.95,South,183,3.0,9.0,54,0.00,,---,0.00,VWS V14.00,2013-05-14 08:58:00,
2013-05-14 04:59:00,51.0,35.4,29.95,South,183,4.0,5.0,55,0.00,,---,0.00,VWS V14.00,2013-05-14 08:59:00,
2013-05-14 05:00:00,51.0,35.4,29.95,South,179,4.0,5.0,55,0.00,,---,0.00,VWS V14.00,2013-05-14 09:00:00,
2013-05-14 05:01:00,51.1,35.5,29.94,South,169,3.0,7.0,55,0.00,,---,0.00,VWS V14.00,2013-05-14 09:01:00,
2013-05-14 05:03:00,51.1,35.5,29.94,South,175,10.0,10.0,55,0.00,,---,0.00,VWS V14.00,2013-05-14 09:03:00,
2013-05-14 05:05:00,51.2,35.6,29.94,SSE,159,3.0,10.0,55,0.00,,---,0.00,VWS V14.00,2013-05-14 09:05:00,
2013-05-14 05:06:00,51.2,35.6,29.94,SSE,167,3.0,10.0,55,0.00,,---,0.00,VWS V14.00,2013-05-14 09:06:00,
2013-05-14 05:09:00,51.0,34.5,29.93,SSE,150,6.0,10.0,53,0.00,,---,0.00,VWS V14.00,2013-05-14 09:09:00,
2013-05-14 05:12:00,51.0,35.0,29.94,South,183,4.0,10.0,54,0.00,,---,0.00,VWS V14.00,2013-05-14 09:12:00,
2013-05-14 05:15:00,51.1,35.5,29.94,SSE,167,4.0,10.0,55,0.00,,---,0.00,VWS V14.00,2013-05-14 09:15:00,
2013-05-14 05:16:00,51.2,36.5,29.94,SSE,162,6.0,10.0,57,0.00,,---,0.00,VWS V14.00,2013-05-14 09:16:00,
2013-05-14 05:19:00,51.1,34.6,29.93,SSW,196,11.0,11.0,53,0.00,,---,0.00,VWS V14.00,2013-05-14 09:19:00,
2013-05-14 05:20:00,51.2,35.6,29.93,South,180,2.0,11.0,55,0.00,,---,0.00,VWS V14.00,2013-05-14 09:20:00,
2013-05-14 05:22:00,51.2,35.6,29.93,South,178,4.0,11.0,55,0.00,,---,0.00,VWS V14.00,2013-05-14 09:22:00,
2013-05-14 05:24:00,51.3,35.7,29.93,South,173,4.0,11.0,55,0.00,,---,0.00,VWS V14.00,2013-05-14 09:24:00,
2013-05-14 05:25:00,51.3,36.2,29.93,South,173,4.0,11.0,56,0.00,,---,0.00,VWS V14.00,2013-05-14 09:25:00,
2013-05-14 05:26:00,51.3,36.2,29.93,South,182,9.0,11.0,56,0.00,,---,0.00,VWS V14.00,2013-05-14 09:26:00,
2013-05-14 05:28:00,51.3,35.7,29.93,South,184,9.0,10.0,55,0.00,,---,0.00,VWS V14.00,2013-05-14 09:28:00,
2013-05-14 05:29:00,51.4,35.3,29.93,South,171,5.0,10.0,54,0.00,,---,0.00,VWS V14.00,2013-05-14 09:29:00,
2013-05-14 05:32:00,51.3,35.2,29.93,SSE,162,6.0,11.0,54,0.00,,---,0.00,VWS V14.00,2013-05-14 09:32:00,
2013-05-14 05:33:00,51.3,34.8,29.93,South,179,5.0,11.0,53,0.00,,---,0.00,VWS V14.00,2013-05-14 09:33:00,
2013-05-14 05:35:00,51.3,35.2,29.93,South,181,4.0,11.0,54,0.00,,---,0.00,VWS V14.00,2013-05-14 09:35:00,
2013-05-14 05:37:00,51.4,35.3,29.93,SSE,159,6.0,11.0,54,0.00,,---,0.00,VWS V14.00,2013-05-14 09:37:00,
2013-05-14 05:38:00,51.4,35.3,29.93,South,179,4.0,11.0,54,0.00,,---,0.00,VWS V14.00,2013-05-14 09:38:00,
2013-05-14 05:40:00,51.4,35.3,29.93,SSE,164,3.0,11.0,54,0.00,,---,0.00,VWS V14.00,2013-05-14 09:40:00,
2013-05-14 05:41:00,51.4,35.3,29.93,South,178,5.0,11.0,54,0.00,,---,0.00,VWS V14.00,2013-05-14 09:41:00,
2013-05-14 05:43:00,51.4,34.9,29.93,South,178,7.0,11.0,53,0.00,,---,0.00,VWS V14.00,2013-05-14 09:43:00,
2013-05-14 05:45:00,51.5,35.0,29.93,South,175,5.0,11.0,53,0.00,,---,0.00,VWS V14.00,2013-05-14 09:45:00,
2013-05-14 05:46:00,51.5,35.0,29.93,South,177,5.0,11.0,53,0.00,,---,0.00,VWS V14.00,2013-05-14 09:46:00,
2013-05-14 05:47:00,51.5,35.0,29.93,South,173,5.0,11.0,53,0.00,,---,0.00,VWS V14.00,2013-05-14 09:47:00,
2013-05-14 05:50:00,51.6,34.6,29.93,South,172,1.0,11.0,52,0.00,,---,0.00,VWS V14.00,2013-05-14 09:50:00,
2013-05-14 05:51:00,51.6,35.0,29.93,South,172,3.0,11.0,53,0.00,,---,0.00,VWS V14.00,2013-05-14 09:51:00,
2013-05-14 05:52:00,51.6,34.6,29.93,South,175,4.0,11.0,52,0.00,,---,0.00,VWS V14.00,2013-05-14 09:52:00,
2013-05-14 05:54:00,51.5,34.5,29.93,South,176,5.0,11.0,52,0.00,,---,0.00,VWS V14.00,2013-05-14 09:54:00,
2013-05-14 05:57:00,51.6,35.0,29.92,South,176,4.0,11.0,53,0.00,,---,0.00,VWS V14.00,2013-05-14 09:57:00,
2013-05-14 05:58:00,51.7,35.6,29.92,South,178,7.0,10.0,54,0.00,,---,0.00,VWS V14.00,2013-05-14 09:58:00,
2013-05-14 05:59:00,51.7,35.6,29.92,South,179,2.0,10.0,54,0.00,,---,0.00,VWS V14.00,2013-05-14 09:59:00,
2013-05-14 06:00:00,51.7,35.6,29.92,South,178,7.0,10.0,54,0.00,,---,0.00,VWS V14.00,2013-05-14 10:00:00,
2013-05-14 06:04:00,51.8,35.2,29.92,South,175,3.0,10.0,53,0.00,,---,0.00,VWS V14.00,2013-05-14 10:04:00,
2013-05-14 06:05:00,51.9,34.8,29.92,South,176,3.0,10.0,52,0.00,,---,0.00,VWS V14.00,2013-05-14 10:05:00,
2013-05-14 06:06:00,51.9,35.3,29.92,South,176,4.0,10.0,53,0.00,,---,0.00,VWS V14.00,2013-05-14 10:06:00,
2013-05-14 06:07:00,51.9,35.3,29.92,South,175,5.0,10.0,53,0.00,,---,0.00,VWS V14.00,2013-05-14 10:07:00,
2013-05-14 06:08:00,51.9,35.3,29.92,South,180,9.0,10.0,53,0.00,,---,0.00,VWS V14.00,2013-05-14 10:08:00,
2013-05-14 06:11:00,52.0,34.9,29.92,South,174,5.0,11.0,52,0.00,,---,0.00,VWS V14.00,2013-05-14 10:11:00,
2013-05-14 06:12:00,52.0,34.9,29.92,South,175,10.0,11.0,52,0.00,,---,0.00,VWS V14.00,2013-05-14 10:12:00,
2013-05-14 06:13:00,52.0,34.9,29.92,SSE,167,4.0,11.0,52,0.00,,---,0.00,VWS V14.00,2013-05-14 10:13:00,
2013-05-14 06:14:00,52.0,35.4,29.92,South,181,5.0,11.0,53,0.00,,---,0.00,VWS V14.00,2013-05-14 10:14:00,
2013-05-14 06:18:00,52.0,35.4,29.92,South,178,5.0,11.0,53,0.00,,---,0.00,VWS V14.00,2013-05-14 10:18:00,
2013-05-14 06:19:00,52.0,34.9,29.92,South,175,6.0,11.0,52,0.00,,---,0.00,VWS V14.00,2013-05-14 10:19:00,
2013-05-14 06:20:00,52.0,34.9,29.92,South,175,3.0,11.0,52,0.00,,---,0.00,VWS V14.00,2013-05-14 10:20:00,
2013-05-14 06:22:00,52.0,35.4,29.92,SSE,167,6.0,13.0,53,0.00,,---,0.00,VWS V14.00,2013-05-14 10:22:00,
2013-05-14 06:23:00,52.1,35.5,29.92,South,176,3.0,13.0,53,0.00,,---,0.00,VWS V14.00,2013-05-14 10:23:00,
2013-05-14 06:24:00,52.1,35.0,29.92,South,178,5.0,13.0,52,0.00,,---,0.00,VWS V14.00,2013-05-14 10:24:00,
2013-05-14 06:27:00,52.1,35.0,29.92,South,170,9.0,13.0,52,0.00,,---,0.00,VWS V14.00,2013-05-14 10:27:00,
2013-05-14 06:28:00,52.0,34.9,29.92,South,180,5.0,13.0,52,0.00,,---,0.00,VWS V14.00,2013-05-14 10:28:00,
2013-05-14 06:29:00,52.0,35.4,29.92,SSE,152,5.0,7.0,53,0.00,,---,0.00,VWS V14.00,2013-05-14 10:29:00,
2013-05-14 06:32:00,52.1,35.0,29.91,South,175,6.0,9.0,52,0.00,,---,0.00,VWS V14.00,2013-05-14 10:32:00,
2013-05-14 06:33:00,52.0,34.9,29.91,South,175,9.0,9.0,52,0.00,,---,0.00,VWS V14.00,2013-05-14 10:33:00,
2013-05-14 06:34:00,52.0,35.4,29.91,South,184,9.0,12.0,53,0.00,,---,0.00,VWS V14.00,2013-05-14 10:34:00,
2013-05-14 06:35:00,52.0,35.4,29.91,South,180,3.0,12.0,53,0.00,,---,0.00,VWS V14.00,2013-05-14 10:35:00,
2013-05-14 06:37:00,52.0,35.4,29.91,South,176,4.0,12.0,53,0.00,,---,0.00,VWS V14.00,2013-05-14 10:37:00,
2013-05-14 06:38:00,51.9,35.3,29.91,South,176,5.0,12.0,53,0.00,,---,0.00,VWS V14.00,2013-05-14 10:38:00,
2013-05-14 06:39:00,51.9,35.3,29.91,South,180,4.0,12.0,53,0.00,,---,0.00,VWS V14.00,2013-05-14 10:39:00,
2013-05-14 06:41:00,51.9,34.8,29.91,South,184,3.0,12.0,52,0.00,,---,0.00,VWS V14.00,2013-05-14 10:41:00,
2013-05-14 06:44:00,51.8,35.2,29.91,South,179,6.0,12.0,53,0.00,,---,0.00,VWS V14.00,2013-05-14 10:44:00,
2013-05-14 06:45:00,51.9,35.8,29.91,South,178,4.0,12.0,54,0.00,,---,0.00,VWS V14.00,2013-05-14 10:45:00,
2013-05-14 06:46:00,51.9,36.3,29.91,South,177,6.0,12.0,55,0.00,,---,0.00,VWS V14.00,2013-05-14 10:46:00,
2013-05-14 06:48:00,51.9,35.8,29.90,SSE,163,10.0,12.0,54,0.00,,---,0.00,VWS V14.00,2013-05-14 10:48:00,
2013-05-14 06:49:00,51.9,35.8,29.90,South,188,5.0,12.0,54,0.00,,---,0.00,VWS V14.00,2013-05-14 10:49:00,
2013-05-14 06:50:00,52.0,36.3,29.90,South,186,3.0,12.0,55,0.00,,---,0.00,VWS V14.00,2013-05-14 10:50:00,
2013-05-14 06:51:00,52.0,35.9,29.91,South,178,5.0,12.0,54,0.00,,---,0.00,VWS V14.00,2013-05-14 10:51:00,
2013-05-14 06:53:00,51.9,36.3,29.90,South,175,10.0,12.0,55,0.00,,---,0.00,VWS V14.00,2013-05-14 10:53:00,
2013-05-14 06:54:00,52.0,36.8,29.90,South,175,10.0,12.0,56,0.00,,---,0.00,VWS V14.00,2013-05-14 10:54:00,
2013-05-14 06:55:00,52.0,36.3,29.90,South,188,4.0,12.0,55,0.00,,---,0.00,VWS V14.00,2013-05-14 10:55:00,
2013-05-14 06:57:00,52.0,36.8,29.90,South,172,2.0,12.0,56,0.00,,---,0.00,VWS V14.00,2013-05-14 10:57:00,
2013-05-14 06:58:00,52.0,36.3,29.90,South,172,0.0,12.0,55,0.00,,---,0.00,VWS V14.00,2013-05-14 10:58:00,
2013-05-14 07:00:00,51.9,36.3,29.91,South,173,3.0,6.0,55,0.00,,---,0.00,VWS V14.00,2013-05-14 11:00:00,
2013-05-14 07:03:00,51.9,36.7,29.91,South,177,3.0,10.0,56,0.00,,---,0.00,VWS V14.00,2013-05-14 11:03:00,
2013-05-14 07:04:00,51.9,36.7,29.91,South,175,3.0,10.0,56,0.00,,---,0.00,VWS V14.00,2013-05-14 11:04:00,
2013-05-14 07:05:00,51.9,36.7,29.91,South,177,2.0,10.0,56,0.00,,---,0.00,VWS V14.00,2013-05-14 11:05:00,
2013-05-14 07:06:00,51.9,36.7,29.91,South,178,4.0,10.0,56,0.00,,---,0.00,VWS V14.00,2013-05-14 11:06:00,
2013-05-14 07:08:00,51.9,36.7,29.91,South,174,4.0,10.0,56,0.00,,---,0.00,VWS V14.00,2013-05-14 11:08:00,
2013-05-14 07:09:00,51.9,36.7,29.91,SSE,163,9.0,10.0,56,0.00,,---,0.00,VWS V14.00,2013-05-14 11:09:00,
2013-05-14 07:10:00,51.9,36.7,29.91,South,171,7.0,10.0,56,0.00,,---,0.00,VWS V14.00,2013-05-14 11:10:00,
2013-05-14 07:11:00,51.9,36.7,29.91,South,176,6.0,10.0,56,0.00,,---,0.00,VWS V14.00,2013-05-14 11:11:00,
2013-05-14 07:14:00,52.0,36.8,29.90,South,173,3.0,10.0,56,0.00,,---,0.00,VWS V14.00,2013-05-14 11:14:00,
2013-05-14 07:17:00,52.0,36.8,29.90,South,172,6.0,10.0,56,0.00,,---,0.00,VWS V14.00,2013-05-14 11:17:00,
2013-05-14 07:18:00,52.0,37.2,29.91,South,172,4.0,10.0,57,0.00,,---,0.00,VWS V14.00,2013-05-14 11:18:00,
2013-05-14 07:22:00,52.1,37.3,29.90,South,170,4.0,10.0,57,0.00,,---,0.00,VWS V14.00,2013-05-14 11:22:00,
2013-05-14 07:23:00,52.1,37.3,29.90,South,170,7.0,10.0,57,0.00,,---,0.00,VWS V14.00,2013-05-14 11:23:00,
2013-05-14 07:24:00,52.1,37.8,29.90,South,175,5.0,10.0,58,0.00,,---,0.00,VWS V14.00,2013-05-14 11:24:00,
2013-05-14 07:28:00,52.2,37.9,29.90,SSE,168,3.0,11.0,58,0.00,,---,0.00,VWS V14.00,2013-05-14 11:28:00,
2013-05-14 07:29:00,52.2,37.9,29.89,South,179,11.0,11.0,58,0.00,,---,0.00,VWS V14.00,2013-05-14 11:29:00,
2013-05-14 07:31:00,52.3,38.0,29.89,South,181,4.0,12.0,58,0.00,,---,0.00,VWS V14.00,2013-05-14 11:31:00,
2013-05-14 07:33:00,52.3,38.0,29.89,South,175,3.0,12.0,58,0.00,,---,0.00,VWS V14.00,2013-05-14 11:33:00,
2013-05-14 07:34:00,52.4,38.1,29.89,SSE,165,13.0,13.0,58,0.00,,---,0.00,VWS V14.00,2013-05-14 11:34:00,
2013-05-14 07:36:00,52.4,38.1,29.89,South,181,5.0,13.0,58,0.00,,---,0.00,VWS V14.00,2013-05-14 11:36:00,
2013-05-14 07:37:00,52.4,38.1,29.89,South,183,13.0,13.0,58,0.00,,---,0.00,VWS V14.00,2013-05-14 11:37:00,
2013-05-14 07:38:00,52.4,38.1,29.89,South,176,7.0,13.0,58,0.00,,---,0.00,VWS V14.00,2013-05-14 11:38:00,
2013-05-14 07:39:00,52.4,38.1,29.88,SSE,164,10.0,13.0,58,0.00,,---,0.00,VWS V14.00,2013-05-14 11:39:00,
2013-05-14 07:40:00,52.4,38.1,29.89,South,176,10.0,13.0,58,0.00,,---,0.00,VWS V14.00,2013-05-14 11:40:00,
2013-05-14 07:41:00,52.4,38.1,29.89,South,171,6.0,13.0,58,0.00,,---,0.00,VWS V14.00,2013-05-14 11:41:00,
2013-05-14 07:43:00,52.4,38.5,29.88,South,175,13.0,13.0,59,0.00,,---,0.00,VWS V14.00,2013-05-14 11:43:00,
2013-05-14 07:45:00,52.5,39.0,29.88,SSE,167,7.0,13.0,60,0.00,,---,0.00,VWS V14.00,2013-05-14 11:45:00,
2013-05-14 07:47:00,52.6,39.1,29.88,SSE,168,3.0,13.0,60,0.00,,---,0.00,VWS V14.00,2013-05-14 11:47:00,
2013-05-14 07:49:00,52.7,39.2,29.88,South,175,7.0,13.0,60,0.00,,---,0.00,VWS V14.00,2013-05-14 11:49:00,
2013-05-14 07:52:00,52.7,38.8,29.88,South,179,7.0,13.0,59,0.00,,---,0.00,VWS V14.00,2013-05-14 11:52:00,
2013-05-14 07:53:00,52.8,38.9,29.88,South,180,7.0,13.0,59,0.00,,---,0.00,VWS V14.00,2013-05-14 11:53:00,
2013-05-14 07:54:00,52.8,39.3,29.88,South,170,5.0,13.0,60,0.00,,---,0.00,VWS V14.00,2013-05-14 11:54:00,
2013-05-14 07:55:00,52.9,39.4,29.88,South,173,9.0,13.0,60,0.00,,---,0.00,VWS V14.00,2013-05-14 11:55:00,
2013-05-14 07:58:00,53.0,39.5,29.88,South,185,7.0,13.0,60,0.00,,---,0.00,VWS V14.00,2013-05-14 11:58:00,
2013-05-14 07:59:00,53.1,39.2,29.88,South,178,6.0,11.0,59,0.00,,---,0.00,VWS V14.00,2013-05-14 11:59:00,
2013-05-14 08:00:00,53.1,39.2,29.88,South,178,5.0,11.0,59,0.00,,---,0.00,VWS V14.00,2013-05-14 12:00:00,
2013-05-14 08:01:00,53.2,38.8,29.89,South,173,7.0,11.0,58,0.00,,---,0.00,VWS V14.00,2013-05-14 12:01:00,
2013-05-14 08:04:00,53.6,40.1,29.89,South,172,3.0,11.0,60,0.00,,---,0.00,VWS V14.00,2013-05-14 12:04:00,
2013-05-14 08:06:00,53.8,39.8,29.88,South,172,4.0,11.0,59,0.00,,---,0.00,VWS V14.00,2013-05-14 12:06:00,
2013-05-14 08:07:00,54.0,40.0,29.88,South,172,4.0,11.0,59,0.00,,---,0.00,VWS V14.00,2013-05-14 12:07:00,
2013-05-14 08:10:00,54.4,40.0,29.88,South,188,3.0,13.0,58,0.00,,---,0.00,VWS V14.00,2013-05-14 12:10:00,
2013-05-14 08:12:00,54.6,40.1,29.88,South,180,3.0,13.0,58,0.00,,---,0.00,VWS V14.00,2013-05-14 12:12:00,
2013-05-14 08:13:00,54.9,40.4,29.88,South,176,7.0,13.0,58,0.00,,---,0.00,VWS V14.00,2013-05-14 12:13:00,
2013-05-14 08:14:00,55.0,40.5,29.88,South,177,5.0,13.0,58,0.00,,---,0.00,VWS V14.00,2013-05-14 12:14:00,
2013-05-14 08:17:00,55.2,40.7,29.87,South,172,9.0,13.0,58,0.00,,---,0.00,VWS V14.00,2013-05-14 12:17:00,
2013-05-14 08:18:00,55.4,40.9,29.87,South,172,4.0,13.0,58,0.00,,---,0.00,VWS V14.00,2013-05-14 12:18:00,
2013-05-14 08:19:00,55.4,40.9,29.87,South,174,6.0,13.0,58,0.00,,---,0.00,VWS V14.00,2013-05-14 12:19:00,
2013-05-14 08:21:00,55.6,40.2,29.87,South,172,3.0,13.0,56,0.00,,---,0.00,VWS V14.00,2013-05-14 12:21:00,
2013-05-14 08:24:00,55.9,41.3,29.86,South,170,7.0,13.0,58,0.00,,---,0.00,VWS V14.00,2013-05-14 12:24:00,
2013-05-14 08:25:00,56.0,41.5,29.86,South,186,12.0,13.0,58,0.00,,---,0.00,VWS V14.00,2013-05-14 12:25:00,
2013-05-14 08:26:00,56.1,40.6,29.86,SSW,194,6.0,13.0,56,0.00,,---,0.00,VWS V14.00,2013-05-14 12:26:00,
2013-05-14 08:27:00,56.1,40.6,29.86,SSE,164,6.0,13.0,56,0.00,,---,0.00,VWS V14.00,2013-05-14 12:27:00,
2013-05-14 08:29:00,56.3,40.8,29.86,South,189,5.0,10.0,56,0.00,,---,0.00,VWS V14.00,2013-05-14 12:29:00,
2013-05-14 08:30:00,56.4,40.9,29.86,South,173,5.0,13.0,56,0.00,,---,0.00,VWS V14.00,2013-05-14 12:30:00,
2013-05-14 08:31:00,56.5,40.5,29.85,South,183,8.0,13.0,55,0.00,,---,0.00,VWS V14.00,2013-05-14 12:31:00,
2013-05-14 08:32:00,56.5,40.5,29.85,South,182,5.0,13.0,55,0.00,,---,0.00,VWS V14.00,2013-05-14 12:32:00,
2013-05-14 08:33:00,56.6,40.6,29.85,South,180,5.0,13.0,55,0.00,,---,0.00,VWS V14.00,2013-05-14 12:33:00,
2013-05-14 08:36:00,56.8,40.8,29.85,SSE,165,7.0,13.0,55,0.00,,---,0.00,VWS V14.00,2013-05-14 12:36:00,
2013-05-14 08:37:00,56.8,40.8,29.85,SW,217,8.0,13.0,55,0.00,,---,0.00,VWS V14.00,2013-05-14 12:37:00,
2013-05-14 08:38:00,56.8,40.8,29.85,South,178,9.0,13.0,55,0.00,,---,0.00,VWS V14.00,2013-05-14 12:38:00,
2013-05-14 08:39:00,56.9,40.9,29.85,South,174,7.0,13.0,55,0.00,,---,0.00,VWS V14.00,2013-05-14 12:39:00,
2013-05-14 08:42:00,57.2,41.2,29.84,South,186,3.0,13.0,55,0.00,,---,0.00,VWS V14.00,2013-05-14 12:42:00,
2013-05-14 08:43:00,57.2,41.2,29.84,South,169,6.0,13.0,55,0.00,,---,0.00,VWS V14.00,2013-05-14 12:43:00,
2013-05-14 08:44:00,57.3,41.3,29.84,SSE,160,10.0,13.0,55,0.00,,---,0.00,VWS V14.00,2013-05-14 12:44:00,
2013-05-14 08:45:00,57.4,40.9,29.84,SSE,155,9.0,13.0,54,0.00,,---,0.00,VWS V14.00,2013-05-14 12:45:00,
2013-05-14 08:48:00,57.8,41.3,29.84,WSW,241,4.0,15.0,54,0.00,,---,0.00,VWS V14.00,2013-05-14 12:48:00,
2013-05-14 08:50:00,58.1,41.6,29.84,SSW,209,13.0,15.0,54,0.00,,---,0.00,VWS V14.00,2013-05-14 12:50:00,
2013-05-14 08:51:00,58.3,41.3,29.84,SSE,168,7.0,15.0,53,0.00,,---,0.00,VWS V14.00,2013-05-14 12:51:00,
2013-05-14 08:52:00,58.4,40.9,29.84,SSW,195,5.0,15.0,52,0.00,,---,0.00,VWS V14.00,2013-05-14 12:52:00,
2013-05-14 08:56:00,59.0,41.9,29.84,South,191,10.0,15.0,53,0.00,,---,0.00,VWS V14.00,2013-05-14 12:56:00,
2013-05-14 08:57:00,59.0,41.4,29.84,SSW,198,4.0,15.0,52,0.00,,---,0.00,VWS V14.00,2013-05-14 12:57:00,
2013-05-14 08:58:00,59.0,41.4,29.84,SSE,168,9.0,15.0,52,0.00,,---,0.00,VWS V14.00,2013-05-14 12:58:00,
2013-05-14 09:01:00,59.6,42.0,29.84,South,174,5.0,12.0,52,0.00,,---,0.00,VWS V14.00,2013-05-14 13:01:00,
2013-05-14 09:02:00,59.8,41.7,29.84,South,175,5.0,12.0,51,0.00,,---,0.00,VWS V14.00,2013-05-14 13:02:00,
2013-05-14 09:03:00,59.9,41.8,29.83,SE,145,9.0,13.0,51,0.00,,---,0.00,VWS V14.00,2013-05-14 13:03:00,
2013-05-14 09:06:00,60.2,42.0,29.84,South,178,10.0,16.0,51,0.00,,---,0.00,VWS V14.00,2013-05-14 13:06:00,
2013-05-14 09:08:00,60.3,41.6,29.83,South,172,8.0,17.0,50,0.00,,---,0.00,VWS V14.00,2013-05-14 13:08:00,
2013-05-14 09:09:00,60.3,41.6,29.83,SW,219,6.0,17.0,50,0.00,,---,0.00,VWS V14.00,2013-05-14 13:09:00,
2013-05-14 09:11:00,60.5,41.8,29.83,South,188,7.0,17.0,50,0.00,,---,0.00,VWS V14.00,2013-05-14 13:11:00,
2013-05-14 09:14:00,60.8,41.5,29.83,SW,219,2.0,17.0,49,0.00,,---,0.00,VWS V14.00,2013-05-14 13:14:00,
2013-05-14 09:15:00,61.0,41.7,29.83,South,173,5.0,17.0,49,0.00,,---,0.00,VWS V14.00,2013-05-14 13:15:00,
2013-05-14 09:16:00,61.2,41.9,29.84,South,191,12.0,17.0,49,0.00,,---,0.00,VWS V14.00,2013-05-14 13:16:00,
2013-05-14 09:18:00,61.1,41.8,29.83,SSW,204,11.0,17.0,49,0.00,,---,0.00,VWS V14.00,2013-05-14 13:18:00,
2013-05-14 09:19:00,61.0,42.2,29.84,SSW,205,13.0,17.0,50,0.00,,---,0.00,VWS V14.00,2013-05-14 13:19:00,
2013-05-14 09:20:00,60.9,42.2,29.83,SSE,156,11.0,17.0,50,0.00,,---,0.00,VWS V14.00,2013-05-14 13:20:00,
2013-05-14 09:24:00,60.4,41.7,29.83,South,190,4.0,21.0,50,0.00,,---,0.00,VWS V14.00,2013-05-14 13:24:00,
2013-05-14 09:25:00,60.4,41.7,29.83,SSE,168,10.0,21.0,50,0.00,,---,0.00,VWS V14.00,2013-05-14 13:25:00,
2013-05-14 09:26:00,60.4,41.7,29.83,South,186,6.0,21.0,50,0.00,,---,0.00,VWS V14.00,2013-05-14 13:26:00,
2013-05-14 09:29:00,60.7,42.5,29.83,SSW,192,11.0,11.0,51,0.00,,---,0.00,VWS V14.00,2013-05-14 13:29:00,
2013-05-14 09:30:00,60.8,42.6,29.83,SSW,206,14.0,16.0,51,0.00,,---,0.00,VWS V14.00,2013-05-14 13:30:00,
2013-05-14 09:32:00,61.0,42.8,29.83,SSE,167,8.0,16.0,51,0.00,,---,0.00,VWS V14.00,2013-05-14 13:32:00,
2013-05-14 09:33:00,61.2,43.0,29.82,SSW,194,10.0,16.0,51,0.00,,---,0.00,VWS V14.00,2013-05-14 13:33:00,
2013-05-14 09:35:00,61.4,42.6,29.82,SSW,203,10.0,16.0,50,0.00,,---,0.00,VWS V14.00,2013-05-14 13:35:00,
2013-05-14 09:36:00,61.4,42.6,29.82,SSW,200,7.0,16.0,50,0.00,,---,0.00,VWS V14.00,2013-05-14 13:36:00,
2013-05-14 09:37:00,61.4,42.6,29.82,South,176,6.0,16.0,50,0.00,,---,0.00,VWS V14.00,2013-05-14 13:37:00,
2013-05-14 09:39:00,61.6,42.8,29.82,SSE,154,5.0,16.0,50,0.00,,---,0.00,VWS V14.00,2013-05-14 13:39:00,
2013-05-14 09:40:00,61.8,43.0,29.82,SW,214,9.0,16.0,50,0.00,,---,0.00,VWS V14.00,2013-05-14 13:40:00,
2013-05-14 09:41:00,62.1,43.3,29.82,SSE,166,10.0,16.0,50,0.00,,---,0.00,VWS V14.00,2013-05-14 13:41:00,
2013-05-14 09:42:00,62.2,42.8,29.82,SE,145,10.0,16.0,49,0.00,,---,0.00,VWS V14.00,2013-05-14 13:42:00,
2013-05-14 09:43:00,62.3,42.9,29.82,South,173,7.0,16.0,49,0.00,,---,0.00,VWS V14.00,2013-05-14 13:43:00,
2013-05-14 09:45:00,62.4,43.0,29.82,SSE,167,12.0,16.0,49,0.00,,---,0.00,VWS V14.00,2013-05-14 13:45:00,
2013-05-14 09:47:00,62.5,43.1,29.82,South,171,10.0,16.0,49,0.00,,---,0.00,VWS V14.00,2013-05-14 13:47:00,
2013-05-14 09:48:00,62.5,43.1,29.82,South,183,6.0,16.0,49,0.00,,---,0.00,VWS V14.00,2013-05-14 13:48:00,
2013-05-14 09:51:00,62.9,42.9,29.81,South,175,7.0,16.0,48,0.00,,---,0.00,VWS V14.00,2013-05-14 13:51:00,
2013-05-14 09:52:00,62.9,42.9,29.81,SSW,199,11.0,16.0,48,0.00,,---,0.00,VWS V14.00,2013-05-14 13:52:00,
2013-05-14 09:53:00,62.8,42.8,29.81,SSE,159,7.0,16.0,48,0.00,,---,0.00,VWS V14.00,2013-05-14 13:53:00,
2013-05-14 09:54:00,62.9,43.5,29.81,SSW,196,8.0,16.0,49,0.00,,---,0.00,VWS V14.00,2013-05-14 13:54:00,
2013-05-14 09:56:00,63.1,43.7,29.81,SSE,163,6.0,16.0,49,0.00,,---,0.00,VWS V14.00,2013-05-14 13:56:00,
2013-05-14 09:58:00,63.2,43.7,29.81,SSW,209,7.0,16.0,49,0.00,,---,0.00,VWS V14.00,2013-05-14 13:58:00,
2013-05-14 09:59:00,63.4,43.9,29.81,South,183,13.0,13.0,49,0.00,,---,0.00,VWS V14.00,2013-05-14 13:59:00,
2013-05-14 10:00:00,63.4,43.9,29.81,SSW,195,12.0,16.0,49,0.00,,---,0.00,VWS V14.00,2013-05-14 14:00:00,
2013-05-14 10:01:00,63.4,43.4,29.81,South,173,5.0,16.0,48,0.00,,---,0.00,VWS V14.00,2013-05-14 14:01:00,
2013-05-14 10:03:00,63.4,43.9,29.81,SSW,202,7.0,16.0,49,0.00,,---,0.00,VWS V14.00,2013-05-14 14:03:00,
2013-05-14 10:05:00,63.6,45.2,29.80,South,171,4.0,16.0,51,0.00,,---,0.00,VWS V14.00,2013-05-14 14:05:00,
2013-05-14 10:07:00,64.0,44.5,29.80,South,181,5.0,16.0,49,0.00,,---,0.00,VWS V14.00,2013-05-14 14:07:00,
2013-05-14 10:09:00,64.3,44.8,29.80,SSE,161,9.0,16.0,49,0.00,,---,0.00,VWS V14.00,2013-05-14 14:09:00,
2013-05-14 10:10:00,64.3,44.8,29.80,SSE,161,9.0,16.0,49,0.00,,---,0.00,VWS V14.00,2013-05-14 14:10:00,
2013-05-14 10:12:00,64.5,44.4,29.80,SSW,192,13.0,16.0,48,0.00,,---,0.00,VWS V14.00,2013-05-14 14:12:00,
2013-05-14 10:13:00,64.5,44.4,29.79,South,179,10.0,16.0,48,0.00,,---,0.00,VWS V14.00,2013-05-14 14:13:00,
2013-05-14 10:16:00,64.6,45.0,29.79,South,170,12.0,16.0,49,0.00,,---,0.00,VWS V14.00,2013-05-14 14:16:00,
2013-05-14 10:17:00,64.5,44.4,29.79,South,182,5.0,16.0,48,0.00,,---,0.00,VWS V14.00,2013-05-14 14:17:00,
2013-05-14 10:18:00,64.6,45.0,29.79,South,175,8.0,16.0,49,0.00,,---,0.00,VWS V14.00,2013-05-14 14:18:00,
2013-05-14 10:19:00,64.7,45.1,29.79,SSE,164,7.0,16.0,49,0.00,,---,0.00,VWS V14.00,2013-05-14 14:19:00,
2013-05-14 10:22:00,65.2,45.6,29.79,South,186,4.0,16.0,49,0.00,,---,0.00,VWS V14.00,2013-05-14 14:22:00,
2013-05-14 10:23:00,65.4,45.2,29.79,South,171,7.0,16.0,48,0.00,,---,0.00,VWS V14.00,2013-05-14 14:23:00,
2013-05-14 10:24:00,65.4,45.2,29.79,SW,236,6.0,16.0,48,0.00,,---,0.00,VWS V14.00,2013-05-14 14:24:00,
2013-05-14 10:27:00,65.9,45.7,29.78,SSE,155,2.0,16.0,48,0.00,,---,0.00,VWS V14.00,2013-05-14 14:27:00,
2013-05-14 10:28:00,66.1,45.9,29.78,West,278,6.0,6.0,48,0.00,,---,0.00,VWS V14.00,2013-05-14 14:28:00,
2013-05-14 10:29:00,66.3,45.5,29.78,SSW,206,3.0,12.0,47,0.00,,---,0.00,VWS V14.00,2013-05-14 14:29:00,
2013-05-14 10:30:00,66.3,45.5,29.78,SSW,210,9.0,13.0,47,0.00,,---,0.00,VWS V14.00,2013-05-14 14:30:00,
2013-05-14 10:32:00,66.5,45.7,29.78,SE,138,10.0,14.0,47,0.00,,---,0.00,VWS V14.00,2013-05-14 14:32:00,
2013-05-14 10:36:00,66.6,45.8,29.78,NW,307,6.0,21.0,47,0.00,,---,0.00,VWS V14.00,2013-05-14 14:36:00,
2013-05-14 10:37:00,66.6,45.8,29.78,SSE,165,7.0,21.0,47,0.00,,---,0.00,VWS V14.00,2013-05-14 14:37:00,
2013-05-14 10:38:00,66.7,45.8,29.78,West,276,3.0,21.0,47,0.00,,---,0.00,VWS V14.00,2013-05-14 14:38:00,
2013-05-14 10:40:00,66.8,45.9,29.77,SSW,199,2.0,21.0,47,0.00,,---,0.00,VWS V14.00,2013-05-14 14:40:00,
2013-05-14 10:41:00,67.1,46.2,29.77,South,172,9.0,21.0,47,0.00,,---,0.00,VWS V14.00,2013-05-14 14:41:00,
2013-05-14 10:42:00,67.5,46.6,29.77,SE,145,11.0,21.0,47,0.00,,---,0.00,VWS V14.00,2013-05-14 14:42:00,
2013-05-14 10:43:00,67.6,46.7,29.77,SSE,163,4.0,21.0,47,0.00,,---,0.00,VWS V14.00,2013-05-14 14:43:00,
2013-05-14 10:44:00,67.7,46.8,29.77,SSE,163,6.0,21.0,47,0.00,,---,0.00,VWS V14.00,2013-05-14 14:44:00,
2013-05-14 10:46:00,68.0,46.5,29.76,WSW,250,11.0,21.0,46,0.00,,---,0.00,VWS V14.00,2013-05-14 14:46:00,
2013-05-14 10:47:00,68.1,46.6,29.76,South,176,6.0,21.0,46,0.00,,---,0.00,VWS V14.00,2013-05-14 14:47:00,
2013-05-14 10:48:00,68.1,46.6,29.76,SSW,205,22.0,22.0,46,0.00,,---,0.00,VWS V14.00,2013-05-14 14:48:00,
2013-05-14 10:50:00,67.9,46.4,29.76,SSW,205,19.0,22.0,46,0.00,,---,0.00,VWS V14.00,2013-05-14 14:50:00,
2013-05-14 10:51:00,67.8,46.3,29.76,SW,219,11.0,22.0,46,0.00,,---,0.00,VWS V14.00,2013-05-14 14:51:00,
2013-05-14 10:52:00,67.8,46.3,29.76,South,190,9.0,22.0,46,0.00,,---,0.00,VWS V14.00,2013-05-14 14:52:00,
2013-05-14 10:53:00,67.9,46.4,29.76,SSW,212,10.0,22.0,46,0.00,,---,0.00,VWS V14.00,2013-05-14 14:53:00,
2013-05-14 10:54:00,67.9,46.4,29.76,South,187,11.0,22.0,46,0.00,,---,0.00,VWS V14.00,2013-05-14 14:54:00,
2013-05-14 10:55:00,68.0,46.5,29.76,SSW,206,14.0,22.0,46,0.00,,---,0.00,VWS V14.00,2013-05-14 14:55:00,
2013-05-14 10:58:00,68.1,46.6,29.76,SSE,159,13.0,13.0,46,0.00,,---,0.00,VWS V14.00,2013-05-14 14:58:00,
2013-05-14 10:59:00,68.1,47.1,29.76,SSW,209,2.0,13.0,47,0.00,,---,0.00,VWS V14.00,2013-05-14 14:59:00,
2013-05-14 11:01:00,68.3,46.7,29.76,South,190,16.0,20.0,46,0.00,,---,0.00,VWS V14.00,2013-05-14 15:01:00,
2013-05-14 11:02:00,68.3,46.7,29.76,SE,133,10.0,20.0,46,0.00,,---,0.00,VWS V14.00,2013-05-14 15:02:00,
2013-05-14 11:04:00,68.4,46.8,29.76,SSE,163,4.0,20.0,46,0.00,,---,0.00,VWS V14.00,2013-05-14 15:04:00,
2013-05-14 11:06:00,68.4,46.8,29.76,SSE,155,9.0,20.0,46,0.00,,---,0.00,VWS V14.00,2013-05-14 15:06:00,
2013-05-14 11:07:00,68.4,46.8,29.76,SSW,207,4.0,20.0,46,0.00,,---,0.00,VWS V14.00,2013-05-14 15:07:00,
2013-05-14 11:09:00,68.6,47.0,29.76,SW,221,12.0,20.0,46,0.00,,---,0.00,VWS V14.00,2013-05-14 15:09:00,
2013-05-14 11:10:00,68.6,47.0,29.76,SW,228,5.0,20.0,46,0.00,,---,0.00,VWS V14.00,2013-05-14 15:10:00,
2013-05-14 11:11:00,68.8,47.8,29.76,South,171,3.0,20.0,47,0.00,,---,0.00,VWS V14.00,2013-05-14 15:11:00,
2013-05-14 11:14:00,69.3,47.7,29.76,West,263,4.0,20.0,46,0.00,,---,0.00,VWS V14.00,2013-05-14 15:14:00,
2013-05-14 11:16:00,69.5,47.8,29.76,West,271,5.0,20.0,46,0.00,,---,0.00,VWS V14.00,2013-05-14 15:16:00,
2013-05-14 11:17:00,69.7,47.4,29.76,SSW,192,1.0,20.0,45,0.00,,---,0.00,VWS V14.00,2013-05-14 15:17:00,
2013-05-14 11:18:00,69.8,47.5,29.76,SSE,159,9.0,20.0,45,0.00,,---,0.00,VWS V14.00,2013-05-14 15:18:00,
2013-05-14 11:20:00,70.1,48.4,29.76,South,188,12.0,20.0,46,0.00,,---,0.00,VWS V14.00,2013-05-14 15:20:00,
2013-05-14 11:21:00,70.1,48.4,29.76,SSW,195,4.0,20.0,46,0.00,,---,0.00,VWS V14.00,2013-05-14 15:21:00,
2013-05-14 11:23:00,70.1,47.8,29.76,SSW,211,14.0,20.0,45,0.00,,---,0.00,VWS V14.00,2013-05-14 15:23:00,
2013-05-14 11:24:00,70.1,47.8,29.76,South,178,3.0,20.0,45,0.00,,---,0.00,VWS V14.00,2013-05-14 15:24:00,
2013-05-14 11:25:00,70.1,47.8,29.76,West,263,6.0,20.0,45,0.00,,---,0.00,VWS V14.00,2013-05-14 15:25:00,
2013-05-14 11:26:00,70.0,47.7,29.76,SSW,192,13.0,20.0,45,0.00,,---,0.00,VWS V14.00,2013-05-14 15:26:00,
2013-05-14 11:28:00,70.0,47.7,29.76,South,182,1.0,20.0,45,0.00,,---,0.00,VWS V14.00,2013-05-14 15:28:00,
2013-05-14 11:29:00,70.1,48.4,29.76,South,182,10.0,10.0,46,0.00,,---,0.00,VWS V14.00,2013-05-14 15:29:00,
2013-05-14 11:31:00,70.4,48.1,29.75,SSW,202,6.0,18.0,45,0.00,,---,0.00,VWS V14.00,2013-05-14 15:31:00,
2013-05-14 11:32:00,70.4,48.1,29.75,West,273,0.0,18.0,45,0.00,,---,0.00,VWS V14.00,2013-05-14 15:32:00,
2013-05-14 11:34:00,70.6,48.2,29.75,South,189,6.0,18.0,45,0.00,,---,0.00,VWS V14.00,2013-05-14 15:34:00,
2013-05-14 11:35:00,70.6,48.2,29.75,South,175,10.0,18.0,45,0.00,,---,0.00,VWS V14.00,2013-05-14 15:35:00,
2013-05-14 11:36:00,70.7,48.3,29.75,South,169,6.0,18.0,45,0.00,,---,0.00,VWS V14.00,2013-05-14 15:36:00,
2013-05-14 11:38:00,70.8,48.4,29.75,WSW,241,12.0,18.0,45,0.00,,---,0.00,VWS V14.00,2013-05-14 15:38:00,
2013-05-14 11:39:00,70.8,48.4,29.75,NW,304,5.0,18.0,45,0.00,,---,0.00,VWS V14.00,2013-05-14 15:39:00,
2013-05-14 11:40:00,70.9,48.5,29.75,SSE,159,4.0,18.0,45,0.00,,---,0.00,VWS V14.00,2013-05-14 15:40:00,
2013-05-14 11:41:00,71.1,48.7,29.75,SSW,194,7.0,18.0,45,0.00,,---,0.00,VWS V14.00,2013-05-14 15:41:00,
2013-05-14 11:43:00,71.3,48.9,29.75,WSW,254,14.0,18.0,45,0.00,,---,0.00,VWS V14.00,2013-05-14 15:43:00,
2013-05-14 11:44:00,71.2,48.2,29.75,WSW,245,14.0,20.0,44,0.00,,---,0.00,VWS V14.00,2013-05-14 15:44:00,
2013-05-14 11:45:00,71.1,48.1,29.75,WSW,256,10.0,20.0,44,0.00,,---,0.00,VWS V14.00,2013-05-14 15:45:00,
2013-05-14 11:48:00,71.1,48.7,29.75,SSE,154,5.0,20.0,45,0.00,,---,0.00,VWS V14.00,2013-05-14 15:48:00,
2013-05-14 11:49:00,71.3,49.5,29.75,SSW,193,7.0,20.0,46,0.00,,---,0.00,VWS V14.00,2013-05-14 15:49:00,
2013-05-14 11:51:00,71.8,49.9,29.75,SSW,199,2.0,20.0,46,0.00,,---,0.00,VWS V14.00,2013-05-14 15:51:00,
2013-05-14 11:52:00,72.0,49.5,29.75,West,279,10.0,20.0,45,0.00,,---,0.00,VWS V14.00,2013-05-14 15:52:00,
2013-05-14 11:53:00,72.2,49.1,29.75,WSW,247,3.0,20.0,44,0.00,,---,0.00,VWS V14.00,2013-05-14 15:53:00,
2013-05-14 11:54:00,72.3,49.2,29.75,WSW,242,5.0,20.0,44,0.00,,---,0.00,VWS V14.00,2013-05-14 15:54:00,
2013-05-14 11:57:00,72.6,49.5,29.75,WSW,245,11.0,20.0,44,0.00,,---,0.00,VWS V14.00,2013-05-14 15:57:00,
2013-05-14 11:59:00,72.4,49.3,29.75,South,190,6.0,13.0,44,0.00,,---,0.00,VWS V14.00,2013-05-14 15:59:00,
2013-05-14 12:01:00,72.1,49.0,29.74,SW,225,6.0,16.0,44,0.00,,---,0.00,VWS V14.00,2013-05-14 16:01:00,
2013-05-14 12:02:00,72.1,49.0,29.75,SW,232,4.0,16.0,44,0.00,,---,0.00,VWS V14.00,2013-05-14 16:02:00,
2013-05-14 12:03:00,72.1,49.6,29.74,West,279,20.0,20.0,45,0.00,,---,0.00,VWS V14.00,2013-05-14 16:03:00,
2013-05-14 12:05:00,72.2,49.7,29.75,West,279,9.0,27.0,45,0.00,,---,0.00,VWS V14.00,2013-05-14 16:05:00,
2013-05-14 12:07:00,72.5,50.0,29.75,West,265,4.0,27.0,45,0.00,,---,0.00,VWS V14.00,2013-05-14 16:07:00,
2013-05-14 12:10:00,73.5,50.3,29.75,SSW,205,11.0,27.0,44,0.00,,---,0.00,VWS V14.00,2013-05-14 16:10:00,
2013-05-14 12:12:00,73.5,50.3,29.74,WSW,252,5.0,27.0,44,0.00,,---,0.00,VWS V14.00,2013-05-14 16:12:00,
2013-05-14 12:13:00,73.5,50.3,29.74,SSE,161,3.0,27.0,44,0.00,,---,0.00,VWS V14.00,2013-05-14 16:13:00,
2013-05-14 12:15:00,74.2,51.5,29.74,WNW,284,8.0,27.0,45,0.00,,---,0.00,VWS V14.00,2013-05-14 16:15:00,
2013-05-14 12:16:00,74.4,51.1,29.74,West,275,12.0,27.0,44,0.00,,---,0.00,VWS V14.00,2013-05-14 16:16:00,
2013-05-14 12:17:00,74.5,51.2,29.74,WSW,239,10.0,27.0,44,0.00,,---,0.00,VWS V14.00,2013-05-14 16:17:00,
2013-05-14 12:18:00,74.4,51.1,29.75,WSW,242,2.0,27.0,44,0.00,,---,0.00,VWS V14.00,2013-05-14 16:18:00,
2013-05-14 12:21:00,73.7,50.5,29.75,West,271,15.0,27.0,44,0.00,,---,0.00,VWS V14.00,2013-05-14 16:21:00,
2013-05-14 12:22:00,73.6,50.4,29.75,West,266,8.0,27.0,44,0.00,,---,0.00,VWS V14.00,2013-05-14 16:22:00,
2013-05-14 12:23:00,73.5,50.9,29.75,WSW,248,5.0,27.0,45,0.00,,---,0.00,VWS V14.00,2013-05-14 16:23:00,
2013-05-14 12:25:00,73.9,51.2,29.75,West,277,7.0,27.0,45,0.00,,---,0.00,VWS V14.00,2013-05-14 16:25:00,
2013-05-14 12:26:00,74.0,51.3,29.75,SSW,209,4.0,27.0,45,0.00,,---,0.00,VWS V14.00,2013-05-14 16:26:00,
2013-05-14 12:27:00,74.0,51.3,29.75,SW,230,11.0,27.0,45,0.00,,---,0.00,VWS V14.00,2013-05-14 16:27:00,
2013-05-14 12:28:00,74.1,51.4,29.75,SSW,206,4.0,9.0,45,0.00,,---,0.00,VWS V14.00,2013-05-14 16:28:00,
2013-05-14 12:29:00,74.1,51.4,29.75,WSW,252,6.0,10.0,45,0.00,,---,0.00,VWS V14.00,2013-05-14 16:29:00,
2013-05-14 12:30:00,74.1,51.4,29.75,West,268,12.0,18.0,45,0.00,,---,0.00,VWS V14.00,2013-05-14 16:30:00,
2013-05-14 12:31:00,74.1,51.4,29.75,WNW,284,11.0,18.0,45,0.00,,---,0.00,VWS V14.00,2013-05-14 16:31:00,
2013-05-14 12:34:00,74.0,51.3,29.75,West,267,14.0,23.0,45,0.00,,---,0.00,VWS V14.00,2013-05-14 16:34:00,
2013-05-14 12:36:00,74.0,51.3,29.76,West,278,16.0,23.0,45,0.00,,---,0.00,VWS V14.00,2013-05-14 16:36:00,
2013-05-14 12:37:00,73.9,51.2,29.76,SW,231,16.0,23.0,45,0.00,,---,0.00,VWS V14.00,2013-05-14 16:37:00,
2013-05-14 12:40:00,73.8,51.2,29.76,West,277,14.0,23.0,45,0.00,,---,0.00,VWS V14.00,2013-05-14 16:40:00,
2013-05-14 12:41:00,73.8,51.2,29.76,WSW,250,7.0,23.0,45,0.00,,---,0.00,VWS V14.00,2013-05-14 16:41:00,
2013-05-14 12:43:00,73.9,51.2,29.76,South,180,3.0,23.0,45,0.00,,---,0.00,VWS V14.00,2013-05-14 16:43:00,
2013-05-14 12:46:00,74.1,51.4,29.76,WSW,238,9.0,23.0,45,0.00,,---,0.00,VWS V14.00,2013-05-14 16:46:00,
2013-05-14 12:47:00,74.1,51.4,29.76,WSW,257,7.0,23.0,45,0.00,,---,0.00,VWS V14.00,2013-05-14 16:47:00,
2013-05-14 12:48:00,74.2,51.5,29.76,West,277,11.0,23.0,45,0.00,,---,0.00,VWS V14.00,2013-05-14 16:48:00,
2013-05-14 12:49:00,74.3,51.6,29.76,SW,222,7.0,23.0,45,0.00,,---,0.00,VWS V14.00,2013-05-14 16:49:00,
2013-05-14 12:51:00,74.9,52.2,29.76,South,175,9.0,23.0,45,0.00,,---,0.00,VWS V14.00,2013-05-14 16:51:00,
2013-05-14 12:52:00,74.9,52.2,29.76,South,180,5.0,23.0,45,0.00,,---,0.00,VWS V14.00,2013-05-14 16:52:00,
2013-05-14 12:53:00,75.1,52.3,29.76,WSW,247,10.0,23.0,45,0.00,,---,0.00,VWS V14.00,2013-05-14 16:53:00,
2013-05-14 12:54:00,75.1,51.7,29.76,West,267,9.0,23.0,44,0.00,,---,0.00,VWS V14.00,2013-05-14 16:54:00,
2013-05-14 12:55:00,75.1,51.7,29.76,West,265,4.0,23.0,44,0.00,,---,0.00,VWS V14.00,2013-05-14 16:55:00,
2013-05-14 12:58:00,75.1,51.7,29.76,West,260,6.0,23.0,44,0.00,,---,0.00,VWS V14.00,2013-05-14 16:58:00,
2013-05-14 13:00:00,75.1,51.7,29.75,West,265,4.0,15.0,44,0.00,,---,0.00,VWS V14.00,2013-05-14 17:00:00,
2013-05-14 13:01:00,75.1,51.7,29.75,WSW,254,7.0,15.0,44,0.00,,---,0.00,VWS V14.00,2013-05-14 17:01:00,
2013-05-14 13:03:00,75.3,51.9,29.75,SSW,194,2.0,15.0,44,0.00,,---,0.00,VWS V14.00,2013-05-14 17:03:00,
2013-05-14 13:04:00,75.4,52.0,29.75,SW,223,5.0,15.0,44,0.00,,---,0.00,VWS V14.00,2013-05-14 17:04:00,
2013-05-14 13:06:00,75.6,52.8,29.75,SW,229,16.0,16.0,45,0.00,,---,0.00,VWS V14.00,2013-05-14 17:06:00,
2013-05-14 13:07:00,75.7,52.3,29.75,West,273,7.0,16.0,44,0.00,,---,0.00,VWS V14.00,2013-05-14 17:07:00,
2013-05-14 13:08:00,75.6,52.2,29.75,WSW,246,6.0,16.0,44,0.00,,---,0.00,VWS V14.00,2013-05-14 17:08:00,
2013-05-14 13:11:00,75.6,52.2,29.75,WSW,256,6.0,16.0,44,0.00,,---,0.00,VWS V14.00,2013-05-14 17:11:00,
2013-05-14 13:12:00,75.6,52.2,29.75,WNW,286,8.0,16.0,44,0.00,,---,0.00,VWS V14.00,2013-05-14 17:12:00,
2013-05-14 13:16:00,76.4,52.9,29.75,West,275,10.0,16.0,44,0.00,,---,0.00,VWS V14.00,2013-05-14 17:16:00,
2013-05-14 13:17:00,76.5,53.0,29.75,West,267,10.0,16.0,44,0.00,,---,0.00,VWS V14.00,2013-05-14 17:17:00,
2013-05-14 13:18:00,76.7,53.2,29.75,WSW,252,1.0,16.0,44,0.00,,---,0.00,VWS V14.00,2013-05-14 17:18:00,
2013-05-14 13:19:00,76.9,52.7,29.75,WSW,237,2.0,16.0,43,0.00,,---,0.00,VWS V14.00,2013-05-14 17:19:00,
2013-05-14 13:23:00,77.1,52.9,29.75,WNW,292,12.0,18.0,43,0.00,,---,0.00,VWS V14.00,2013-05-14 17:23:00,
2013-05-14 13:24:00,76.7,52.5,29.75,WSW,257,12.0,18.0,43,0.00,,---,0.00,VWS V14.00,2013-05-14 17:24:00,
2013-05-14 13:25:00,76.4,52.3,29.75,West,276,6.0,18.0,43,0.00,,---,0.00,VWS V14.00,2013-05-14 17:25:00,
2013-05-14 13:26:00,76.2,52.7,29.75,West,271,4.0,18.0,44,0.00,,---,0.00,VWS V14.00,2013-05-14 17:26:00,
2013-05-14 13:27:00,76.1,52.6,29.74,SSW,203,5.0,18.0,44,0.00,,---,0.00,VWS V14.00,2013-05-14 17:27:00,
2013-05-14 13:28:00,76.2,53.3,29.74,SSW,211,5.0,18.0,45,0.00,,---,0.00,VWS V14.00,2013-05-14 17:28:00,
2013-05-14 13:29:00,76.3,52.8,29.74,WNW,294,6.0,9.0,44,0.00,,---,0.00,VWS V14.00,2013-05-14 17:29:00,
2013-05-14 13:30:00,76.4,52.9,29.74,West,279,5.0,9.0,44,0.00,,---,0.00,VWS V14.00,2013-05-14 17:30:00,
2013-05-14 13:33:00,76.9,53.3,29.74,NW,309,15.0,15.0,44,0.00,,---,0.00,VWS V14.00,2013-05-14 17:33:00,
2013-05-14 13:35:00,77.1,53.5,29.74,West,273,8.0,15.0,44,0.00,,---,0.00,VWS V14.00,2013-05-14 17:35:00,
2013-05-14 13:38:00,77.2,53.6,29.74,West,264,10.0,15.0,44,0.00,,---,0.00,VWS V14.00,2013-05-14 17:38:00,
2013-05-14 13:39:00,77.2,53.6,29.74,West,261,12.0,15.0,44,0.00,,---,0.00,VWS V14.00,2013-05-14 17:39:00,
2013-05-14 13:41:00,76.9,53.3,29.74,West,264,6.0,15.0,44,0.00,,---,0.00,VWS V14.00,2013-05-14 17:41:00,
2013-05-14 13:43:00,77.0,53.4,29.74,WNW,296,7.0,15.0,44,0.00,,---,0.00,VWS V14.00,2013-05-14 17:43:00,
2013-05-14 13:44:00,77.2,53.6,29.74,West,268,12.0,15.0,44,0.00,,---,0.00,VWS V14.00,2013-05-14 17:44:00,
2013-05-14 13:45:00,77.3,53.7,29.74,West,275,8.0,15.0,44,0.00,,---,0.00,VWS V14.00,2013-05-14 17:45:00,
2013-05-14 13:46:00,77.3,53.7,29.74,West,279,5.0,15.0,44,0.00,,---,0.00,VWS V14.00,2013-05-14 17:46:00,
2013-05-14 13:49:00,77.7,54.1,29.74,WNW,287,6.0,15.0,44,0.00,,---,0.00,VWS V14.00,2013-05-14 17:49:00,
2013-05-14 13:50:00,77.7,54.1,29.74,NNW,330,7.0,15.0,44,0.00,,---,0.00,VWS V14.00,2013-05-14 17:50:00,
2013-05-14 13:51:00,77.7,54.1,29.74,WSW,249,11.0,17.0,44,0.00,,---,0.00,VWS V14.00,2013-05-14 17:51:00,
2013-05-14 13:52:00,77.7,54.1,29.74,West,279,8.0,17.0,44,0.00,,---,0.00,VWS V14.00,2013-05-14 17:52:00,
2013-05-14 13:55:00,77.8,54.2,29.74,WNW,291,2.0,17.0,44,0.00,,---,0.00,VWS V14.00,2013-05-14 17:55:00,
2013-05-14 13:56:00,77.8,54.2,29.74,West,271,6.0,17.0,44,0.00,,---,0.00,VWS V14.00,2013-05-14 17:56:00,
2013-05-14 13:57:00,77.8,54.2,29.73,WNW,290,12.0,17.0,44,0.00,,---,0.00,VWS V14.00,2013-05-14 17:57:00,
2013-05-14 13:58:00,77.8,54.2,29.73,West,264,11.0,12.0,44,0.00,,---,0.00,VWS V14.00,2013-05-14 17:58:00,
2013-05-14 14:00:00,77.6,54.0,29.73,WNW,290,10.0,15.0,44,0.00,,---,0.00,VWS V14.00,2013-05-14 18:00:00,
2013-05-14 14:01:00,77.4,53.8,29.73,WSW,253,7.0,15.0,44,0.00,,---,0.00,VWS V14.00,2013-05-14 18:01:00,
2013-05-14 14:02:00,77.2,53.6,29.73,WSW,240,2.0,15.0,44,0.00,,---,0.00,VWS V14.00,2013-05-14 18:02:00,
2013-05-14 14:03:00,77.0,53.4,29.73,WSW,247,7.0,15.0,44,0.00,,---,0.00,VWS V14.00,2013-05-14 18:03:00,
2013-05-14 14:04:00,77.0,54.1,29.73,SW,215,5.0,15.0,45,0.00,,---,0.00,VWS V14.00,2013-05-14 18:04:00,
2013-05-14 14:05:00,77.0,54.1,29.73,SSE,163,3.0,15.0,45,0.00,,---,0.00,VWS V14.00,2013-05-14 18:05:00,
2013-05-14 14:07:00,77.6,54.6,29.72,West,277,9.0,15.0,45,0.00,,---,0.00,VWS V14.00,2013-05-14 18:07:00,
2013-05-14 14:08:00,78.0,54.3,29.72,West,272,15.0,15.0,44,0.00,,---,0.00,VWS V14.00,2013-05-14 18:08:00,
2013-05-14 14:10:00,78.2,54.5,29.72,West,266,12.0,16.0,44,0.00,,---,0.00,VWS V14.00,2013-05-14 18:10:00,
2013-05-14 14:13:00,78.0,54.3,29.72,SW,236,5.0,16.0,44,0.00,,---,0.00,VWS V14.00,2013-05-14 18:13:00,
2013-05-14 14:14:00,77.9,54.3,29.72,SSW,200,4.0,16.0,44,0.00,,---,0.00,VWS V14.00,2013-05-14 18:14:00,
2013-05-14 14:15:00,77.8,54.2,29.72,West,263,6.0,16.0,44,0.00,,---,0.00,VWS V14.00,2013-05-14 18:15:00,
2013-05-14 14:19:00,77.6,54.0,29.72,SSW,204,5.0,16.0,44,0.00,,---,0.00,VWS V14.00,2013-05-14 18:19:00,
2013-05-14 14:20:00,77.7,54.1,29.72,WSW,240,6.0,16.0,44,0.00,,---,0.00,VWS V14.00,2013-05-14 18:20:00,
2013-05-14 14:25:00,77.8,54.2,29.72,West,274,5.0,16.0,44,0.00,,---,0.00,VWS V14.00,2013-05-14 18:25:00,
2013-05-14 14:26:00,77.8,54.2,29.73,WNW,288,9.0,16.0,44,0.00,,---,0.00,VWS V14.00,2013-05-14 18:26:00,
2013-05-14 14:27:00,77.9,54.9,29.73,West,276,8.0,16.0,45,0.00,,---,0.00,VWS V14.00,2013-05-14 18:27:00,
2013-05-14 14:28:00,78.0,54.3,29.73,West,278,10.0,16.0,44,0.00,,---,0.00,VWS V14.00,2013-05-14 18:28:00,
2013-05-14 14:31:00,78.2,54.5,29.73,West,273,15.0,15.0,44,0.00,,---,0.00,VWS V14.00,2013-05-14 18:31:00,
2013-05-14 14:32:00,78.2,54.5,29.73,SW,233,7.0,17.0,44,0.00,,---,0.00,VWS V14.00,2013-05-14 18:32:00,
2013-05-14 14:33:00,78.1,54.4,29.73,SW,217,6.0,17.0,44,0.00,,---,0.00,VWS V14.00,2013-05-14 18:33:00,
2013-05-14 14:35:00,78.1,54.4,29.73,WNW,284,10.0,17.0,44,0.00,,---,0.00,VWS V14.00,2013-05-14 18:35:00,
2013-05-14 14:38:00,78.2,54.5,29.73,WSW,252,9.0,17.0,44,0.00,,---,0.00,VWS V14.00,2013-05-14 18:38:00,
2013-05-14 14:39:00,78.1,54.4,29.72,West,272,15.0,17.0,44,0.00,,---,0.00,VWS V14.00,2013-05-14 18:39:00,
2013-05-14 14:42:00,78.3,55.2,29.72,WNW,289,9.0,17.0,45,0.00,,---,0.00,VWS V14.00,2013-05-14 18:42:00,
2013-05-14 14:43:00,78.4,55.3,29.71,SW,223,4.0,17.0,45,0.00,,---,0.00,VWS V14.00,2013-05-14 18:43:00,
2013-05-14 14:44:00,78.5,55.4,29.71,SW,216,3.0,17.0,45,0.00,,---,0.00,VWS V14.00,2013-05-14 18:44:00,
2013-05-14 14:45:00,78.6,55.5,29.71,WSW,245,5.0,17.0,45,0.00,,---,0.00,VWS V14.00,2013-05-14 18:45:00,
2013-05-14 14:46:00,78.7,55.0,29.71,WSW,244,4.0,17.0,44,0.00,,---,0.00,VWS V14.00,2013-05-14 18:46:00,
2013-05-14 14:48:00,79.0,55.2,29.71,WNW,302,12.0,17.0,44,0.00,,---,0.00,VWS V14.00,2013-05-14 18:48:00,
2013-05-14 14:49:00,79.1,55.3,29.71,WNW,302,6.0,17.0,44,0.00,,---,0.00,VWS V14.00,2013-05-14 18:49:00,
2013-05-14 14:50:00,79.3,55.5,29.71,WSW,248,7.0,17.0,44,0.00,,---,0.00,VWS V14.00,2013-05-14 18:50:00,
2013-05-14 14:53:00,79.3,55.5,29.71,West,265,10.0,17.0,44,0.00,,---,0.00,VWS V14.00,2013-05-14 18:53:00,
2013-05-14 14:54:00,79.5,55.7,29.71,West,277,4.0,17.0,44,0.00,,---,0.00,VWS V14.00,2013-05-14 18:54:00,
2013-05-14 14:55:00,79.6,55.8,29.71,WSW,248,13.0,17.0,44,0.00,,---,0.00,VWS V14.00,2013-05-14 18:55:00,
2013-05-14 14:57:00,79.6,55.8,29.71,West,280,14.0,19.0,44,0.00,,---,0.00,VWS V14.00,2013-05-14 18:57:00,
2013-05-14 14:58:00,79.2,55.4,29.71,WSW,257,8.0,12.0,44,0.00,,---,0.00,VWS V14.00,2013-05-14 18:58:00,
2013-05-14 15:00:00,79.2,55.4,29.71,West,267,13.0,13.0,44,0.00,,---,0.00,VWS V14.00,2013-05-14 19:00:00,
2013-05-14 15:02:00,79.3,55.5,29.71,West,279,13.0,16.0,44,0.00,,---,0.00,VWS V14.00,2013-05-14 19:02:00,
2013-05-14 15:03:00,79.4,55.6,29.71,WNW,296,7.0,18.0,44,0.00,,---,0.00,VWS V14.00,2013-05-14 19:03:00,
2013-05-14 15:07:00,79.5,55.7,29.71,West,268,12.0,18.0,44,0.00,,---,0.00,VWS V14.00,2013-05-14 19:07:00,
2013-05-14 15:13:00,80.0,56.2,29.71,West,264,6.0,10.0,44,0.00,,---,0.00,VWS V14.00,2013-05-14 19:13:00,
2013-05-14 15:14:00,80.2,56.3,29.71,WSW,242,4.0,11.0,44,0.00,,---,0.00,VWS V14.00,2013-05-14 19:14:00,
2013-05-14 15:15:00,80.4,55.9,29.71,West,277,5.0,10.0,43,0.00,,---,0.00,VWS V14.00,2013-05-14 19:15:00,
2013-05-14 15:18:00,80.6,56.1,29.71,WNW,298,7.0,8.0,43,0.00,,---,0.00,VWS V14.00,2013-05-14 19:18:00,
2013-05-14 15:19:00,80.7,56.2,29.70,West,265,10.0,11.0,43,0.00,,---,0.00,VWS V14.00,2013-05-14 19:19:00,
2013-05-14 15:20:00,80.9,56.3,29.70,West,275,11.0,14.0,43,0.00,,---,0.00,VWS V14.00,2013-05-14 19:20:00,
2013-05-14 15:21:00,81.0,56.4,29.71,WSW,244,11.0,16.0,43,0.00,,---,0.00,VWS V14.00,2013-05-14 19:21:00,
2013-05-14 15:23:00,80.8,56.2,29.71,West,273,11.0,18.0,43,0.00,,---,0.00,VWS V14.00,2013-05-14 19:23:00,
2013-05-14 15:24:00,80.7,56.2,29.71,West,267,12.0,12.0,43,0.00,,---,0.00,VWS V14.00,2013-05-14 19:24:00,
2013-05-14 15:26:00,80.6,56.1,29.71,WSW,245,5.0,12.0,43,0.00,,---,0.00,VWS V14.00,2013-05-14 19:26:00,
2013-05-14 15:27:00,80.5,56.0,29.70,WSW,248,3.0,12.0,43,0.00,,---,0.00,VWS V14.00,2013-05-14 19:27:00,
2013-05-14 15:28:00,80.5,56.0,29.70,WSW,248,3.0,12.0,43,0.00,,---,0.00,VWS V14.00,2013-05-14 19:28:00,
2013-05-14 15:32:00,80.4,55.9,29.70,West,273,4.0,13.0,43,0.00,,---,0.00,VWS V14.00,2013-05-14 19:32:00,
2013-05-14 15:33:00,80.4,55.9,29.70,WSW,239,11.0,13.0,43,0.00,,---,0.00,VWS V14.00,2013-05-14 19:33:00,
2013-05-14 15:34:00,80.2,55.7,29.70,West,259,9.0,14.0,43,0.00,,---,0.00,VWS V14.00,2013-05-14 19:34:00,
2013-05-14 15:49:00,81.1,56.5,29.70,West,274,10.0,13.0,43,0.00,,---,0.00,VWS V14.00,2013-05-14 19:49:00,
2013-05-14 15:50:00,81.3,56.7,29.70,West,273,10.0,14.0,43,0.00,,---,0.00,VWS V14.00,2013-05-14 19:50:00,
2013-05-14 15:54:00,81.1,56.5,29.70,West,266,6.0,15.0,43,0.00,,---,0.00,VWS V14.00,2013-05-14 19:54:00,
2013-05-14 15:55:00,80.9,56.3,29.70,NW,306,6.0,15.0,43,0.00,,---,0.00,VWS V14.00,2013-05-14 19:55:00,
2013-05-14 15:56:00,80.9,56.3,29.70,WNW,290,10.0,15.0,43,0.00,,---,0.00,VWS V14.00,2013-05-14 19:56:00,
2013-05-14 15:57:00,81.1,57.2,29.70,West,275,10.0,15.0,44,0.00,,---,0.00,VWS V14.00,2013-05-14 19:57:00,
2013-05-14 15:58:00,81.2,57.2,29.70,WSW,254,12.0,15.0,44,0.00,,---,0.00,VWS V14.00,2013-05-14 19:58:00,
2013-05-14 16:02:00,81.6,57.0,29.71,WNW,284,14.0,16.0,43,0.00,,---,0.00,VWS V14.00,2013-05-14 20:02:00,
2013-05-14 16:03:00,81.6,57.0,29.71,WNW,299,14.0,16.0,43,0.00,,---,0.00,VWS V14.00,2013-05-14 20:03:00,
2013-05-14 16:07:00,81.9,57.2,29.71,NW,311,7.0,17.0,43,0.00,,---,0.00,VWS V14.00,2013-05-14 20:07:00,
2013-05-14 16:09:00,82.0,57.3,29.71,West,276,6.0,17.0,43,0.00,,---,0.00,VWS V14.00,2013-05-14 20:09:00,
2013-05-14 16:10:00,82.0,57.3,29.71,West,272,9.0,17.0,43,0.00,,---,0.00,VWS V14.00,2013-05-14 20:10:00,
2013-05-14 16:11:00,82.1,58.0,29.71,WNW,292,9.0,17.0,44,0.00,,---,0.00,VWS V14.00,2013-05-14 20:11:00,
2013-05-14 16:12:00,82.3,57.6,29.71,West,277,10.0,18.0,43,0.00,,---,0.00,VWS V14.00,2013-05-14 20:12:00,
2013-05-14 16:14:00,82.0,57.3,29.71,West,271,8.0,19.0,43,0.00,,---,0.00,VWS V14.00,2013-05-14 20:14:00,
2013-05-14 16:17:00,81.8,57.8,29.71,West,275,6.0,19.0,44,0.00,,---,0.00,VWS V14.00,2013-05-14 20:17:00,
2013-05-14 16:18:00,81.8,57.8,29.71,WNW,290,27.0,27.0,44,0.00,,---,0.00,VWS V14.00,2013-05-14 20:18:00,
2013-05-14 16:19:00,81.8,57.1,29.71,WNW,290,17.0,27.0,43,0.00,,---,0.00,VWS V14.00,2013-05-14 20:19:00,
2013-05-14 16:21:00,81.6,57.6,29.71,West,271,11.0,27.0,44,0.00,,---,0.00,VWS V14.00,2013-05-14 20:21:00,
2013-05-14 16:23:00,81.4,57.4,29.71,West,276,6.0,27.0,44,0.00,,---,0.00,VWS V14.00,2013-05-14 20:23:00,
2013-05-14 16:24:00,81.4,57.4,29.71,NW,325,14.0,27.0,44,0.00,,---,0.00,VWS V14.00,2013-05-14 20:24:00,
2013-05-14 16:27:00,81.6,57.6,29.71,WNW,288,7.0,27.0,44,0.00,,---,0.00,VWS V14.00,2013-05-14 20:27:00,
2013-05-14 16:28:00,81.9,57.9,29.71,NW,313,8.0,27.0,44,0.00,,---,0.00,VWS V14.00,2013-05-14 20:28:00,
2013-05-14 16:29:00,82.1,58.0,29.71,WNW,302,7.0,10.0,44,0.00,,---,0.00,VWS V14.00,2013-05-14 20:29:00,
2013-05-14 16:30:00,82.1,58.0,29.71,WNW,294,6.0,12.0,44,0.00,,---,0.00,VWS V14.00,2013-05-14 20:30:00,
2013-05-14 16:32:00,82.4,57.7,29.71,WNW,288,6.0,12.0,43,0.00,,---,0.00,VWS V14.00,2013-05-14 20:32:00,
2013-05-14 16:33:00,82.6,57.9,29.71,West,281,13.0,15.0,43,0.00,,---,0.00,VWS V14.00,2013-05-14 20:33:00,
2013-05-14 16:35:00,82.8,58.0,29.71,WNW,290,13.0,16.0,43,0.00,,---,0.00,VWS V14.00,2013-05-14 20:35:00,
2013-05-14 16:36:00,82.8,58.0,29.71,West,272,11.0,16.0,43,0.00,,---,0.00,VWS V14.00,2013-05-14 20:36:00,
2013-05-14 16:37:00,82.8,58.0,29.71,WNW,299,4.0,16.0,43,0.00,,---,0.00,VWS V14.00,2013-05-14 20:37:00,
2013-05-14 16:39:00,82.7,58.0,29.71,West,275,12.0,16.0,43,0.00,,---,0.00,VWS V14.00,2013-05-14 20:39:00,
2013-05-14 16:41:00,82.8,58.0,29.71,WNW,283,7.0,16.0,43,0.00,,---,0.00,VWS V14.00,2013-05-14 20:41:00,
2013-05-14 16:43:00,83.0,58.2,29.71,West,277,11.0,16.0,43,0.00,,---,0.00,VWS V14.00,2013-05-14 20:43:00,
2013-05-14 16:44:00,83.0,57.6,29.71,NW,311,11.0,16.0,42,0.00,,---,0.00,VWS V14.00,2013-05-14 20:44:00,
2013-05-14 16:46:00,82.8,57.4,29.71,WNW,292,15.0,18.0,42,0.00,,---,0.00,VWS V14.00,2013-05-14 20:46:00,
2013-05-14 16:49:00,82.5,57.1,29.71,West,273,12.0,18.0,42,0.00,,---,0.00,VWS V14.00,2013-05-14 20:49:00,
2013-05-14 16:50:00,82.2,57.5,29.71,WNW,288,10.0,18.0,43,0.00,,---,0.00,VWS V14.00,2013-05-14 20:50:00,
2013-05-14 16:51:00,82.0,57.3,29.71,WNW,284,7.0,18.0,43,0.00,,---,0.00,VWS V14.00,2013-05-14 20:51:00,
2013-05-14 16:52:00,81.9,57.2,29.71,West,275,12.0,18.0,43,0.00,,---,0.00,VWS V14.00,2013-05-14 20:52:00,
2013-05-14 16:54:00,81.7,57.0,29.71,NW,307,10.0,18.0,43,0.00,,---,0.00,VWS V14.00,2013-05-14 20:54:00,
2013-05-14 16:55:00,81.7,57.7,29.72,WNW,302,11.0,18.0,44,0.00,,---,0.00,VWS V14.00,2013-05-14 20:55:00,
2013-05-14 16:57:00,82.0,58.0,29.72,WNW,286,10.0,18.0,44,0.00,,---,0.00,VWS V14.00,2013-05-14 20:57:00,
2013-05-14 16:58:00,82.1,58.0,29.72,NNW,327,13.0,18.0,44,0.00,,---,0.00,VWS V14.00,2013-05-14 20:58:00,
2013-05-14 17:00:00,81.7,57.0,29.71,NNW,327,11.0,15.0,43,0.00,,---,0.00,VWS V14.00,2013-05-14 21:00:00,
2013-05-14 17:03:00,80.9,57.0,29.71,NW,317,10.0,15.0,44,0.00,,---,0.00,VWS V14.00,2013-05-14 21:03:00,
2013-05-14 17:04:00,80.9,57.0,29.71,NW,309,6.0,15.0,44,0.00,,---,0.00,VWS V14.00,2013-05-14 21:04:00,
2013-05-14 17:05:00,80.8,56.9,29.71,NW,314,9.0,15.0,44,0.00,,---,0.00,VWS V14.00,2013-05-14 21:05:00,
2013-05-14 17:06:00,80.8,56.9,29.71,WNW,295,6.0,15.0,44,0.00,,---,0.00,VWS V14.00,2013-05-14 21:06:00,
2013-05-14 17:09:00,81.2,57.2,29.72,West,273,8.0,15.0,44,0.00,,---,0.00,VWS V14.00,2013-05-14 21:09:00,
2013-05-14 17:10:00,81.3,57.3,29.72,NW,314,9.0,15.0,44,0.00,,---,0.00,VWS V14.00,2013-05-14 21:10:00,
2013-05-14 17:11:00,81.5,57.5,29.72,WNW,298,9.0,15.0,44,0.00,,---,0.00,VWS V14.00,2013-05-14 21:11:00,
2013-05-14 17:12:00,81.7,57.0,29.72,WNW,296,6.0,15.0,43,0.00,,---,0.00,VWS V14.00,2013-05-14 21:12:00,
2013-05-14 17:15:00,81.9,57.2,29.73,WNW,303,7.0,15.0,43,0.00,,---,0.00,VWS V14.00,2013-05-14 21:15:00,
2013-05-14 17:16:00,81.9,57.2,29.73,WNW,300,7.0,15.0,43,0.00,,---,0.00,VWS V14.00,2013-05-14 21:16:00,
2013-05-14 17:17:00,81.8,57.1,29.73,NNW,328,9.0,15.0,43,0.00,,---,0.00,VWS V14.00,2013-05-14 21:17:00,
2013-05-14 17:19:00,81.7,57.0,29.73,NW,310,13.0,20.0,43,0.00,,---,0.00,VWS V14.00,2013-05-14 21:19:00,
2013-05-14 17:21:00,81.7,57.0,29.73,West,277,9.0,20.0,43,0.00,,---,0.00,VWS V14.00,2013-05-14 21:21:00,
2013-05-14 17:22:00,81.6,57.0,29.73,NW,316,11.0,20.0,43,0.00,,---,0.00,VWS V14.00,2013-05-14 21:22:00,
2013-05-14 17:24:00,81.6,57.0,29.73,West,269,10.0,20.0,43,0.00,,---,0.00,VWS V14.00,2013-05-14 21:24:00,
2013-05-14 17:25:00,81.5,56.9,29.73,WNW,287,6.0,20.0,43,0.00,,---,0.00,VWS V14.00,2013-05-14 21:25:00,
2013-05-14 17:27:00,81.5,56.9,29.73,WNW,290,12.0,20.0,43,0.00,,---,0.00,VWS V14.00,2013-05-14 21:27:00,
2013-05-14 17:29:00,81.4,56.8,29.73,NW,319,10.0,11.0,43,0.00,,---,0.00,VWS V14.00,2013-05-14 21:29:00,
2013-05-14 17:31:00,81.2,56.6,29.73,NNW,331,14.0,18.0,43,0.00,,---,0.00,VWS V14.00,2013-05-14 21:31:00,
2013-05-14 17:32:00,81.0,56.4,29.73,NNW,336,9.0,18.0,43,0.00,,---,0.00,VWS V14.00,2013-05-14 21:32:00,
2013-05-14 17:33:00,80.8,56.2,29.73,WSW,257,10.0,18.0,43,0.00,,---,0.00,VWS V14.00,2013-05-14 21:33:00,
2013-05-14 17:34:00,80.8,56.2,29.73,WNW,299,9.0,18.0,43,0.00,,---,0.00,VWS V14.00,2013-05-14 21:34:00,
2013-05-14 17:38:00,80.9,56.3,29.72,NW,312,6.0,18.0,43,0.00,,---,0.00,VWS V14.00,2013-05-14 21:38:00,
2013-05-14 17:39:00,80.8,56.2,29.72,West,269,10.0,18.0,43,0.00,,---,0.00,VWS V14.00,2013-05-14 21:39:00,
2013-05-14 17:40:00,80.8,56.9,29.72,WNW,290,10.0,18.0,44,0.00,,---,0.00,VWS V14.00,2013-05-14 21:40:00,
2013-05-14 17:42:00,80.8,56.9,29.72,WNW,290,6.0,18.0,44,0.00,,---,0.00,VWS V14.00,2013-05-14 21:42:00,
2013-05-14 17:44:00,80.8,56.2,29.73,NW,310,10.0,18.0,43,0.00,,---,0.00,VWS V14.00,2013-05-14 21:44:00,
2013-05-14 17:45:00,80.6,56.7,29.73,NW,313,7.0,18.0,44,0.00,,---,0.00,VWS V14.00,2013-05-14 21:45:00,
2013-05-14 17:48:00,80.3,56.4,29.73,WSW,257,11.0,18.0,44,0.00,,---,0.00,VWS V14.00,2013-05-14 21:48:00,
2013-05-14 17:50:00,80.2,56.3,29.73,NW,306,2.0,18.0,44,0.00,,---,0.00,VWS V14.00,2013-05-14 21:50:00,
2013-05-14 17:53:00,80.1,56.9,29.73,NNW,338,9.0,18.0,45,0.00,,---,0.00,VWS V14.00,2013-05-14 21:53:00,
2013-05-14 17:55:00,79.9,56.7,29.73,NW,317,11.0,18.0,45,0.00,,---,0.00,VWS V14.00,2013-05-14 21:55:00,
2013-05-14 17:56:00,79.8,56.6,29.73,NNW,327,7.0,18.0,45,0.00,,---,0.00,VWS V14.00,2013-05-14 21:56:00,
2013-05-14 17:57:00,79.7,56.5,29.72,NW,306,10.0,18.0,45,0.00,,---,0.00,VWS V14.00,2013-05-14 21:57:00,
2013-05-14 17:58:00,79.5,56.3,29.72,NW,325,6.0,18.0,45,0.00,,---,0.00,VWS V14.00,2013-05-14 21:58:00,
2013-05-14 18:00:00,79.1,56.6,29.72,NNW,331,4.0,11.0,46,0.00,,---,0.00,VWS V14.00,2013-05-14 22:00:00,
2013-05-14 18:01:00,79.1,56.0,29.72,NW,304,8.0,12.0,45,0.00,,---,0.00,VWS V14.00,2013-05-14 22:01:00,
2013-05-14 18:02:00,79.0,56.5,29.72,West,263,7.0,12.0,46,0.00,,---,0.00,VWS V14.00,2013-05-14 22:02:00,
2013-05-14 18:04:00,78.8,55.1,29.72,West,274,12.0,17.0,44,0.00,,---,0.00,VWS V14.00,2013-05-14 22:04:00,
2013-05-14 18:05:00,78.7,55.6,29.71,West,269,9.0,17.0,45,0.00,,---,0.00,VWS V14.00,2013-05-14 22:05:00,
2013-05-14 18:06:00,78.7,55.6,29.70,West,271,12.0,17.0,45,0.00,,---,0.00,VWS V14.00,2013-05-14 22:06:00,
2013-05-14 18:07:00,78.5,55.4,29.69,West,263,11.0,17.0,45,0.00,,---,0.00,VWS V14.00,2013-05-14 22:07:00,
2013-05-14 18:09:00,78.1,55.0,29.68,WSW,256,5.0,17.0,45,0.00,,---,0.00,VWS V14.00,2013-05-14 22:09:00,
2013-05-14 18:11:00,77.6,55.2,29.67,WSW,253,9.0,17.0,46,0.00,,---,0.00,VWS V14.00,2013-05-14 22:11:00,
2013-05-14 18:12:00,77.5,55.1,29.68,West,272,10.0,17.0,46,0.00,,---,0.00,VWS V14.00,2013-05-14 22:12:00,
2013-05-14 18:13:00,77.4,55.0,29.68,West,272,11.0,17.0,46,0.00,,---,0.00,VWS V14.00,2013-05-14 22:13:00,
2013-05-14 18:15:00,77.3,54.9,29.69,West,266,9.0,17.0,46,0.00,,---,0.00,VWS V14.00,2013-05-14 22:15:00,
2013-05-14 18:17:00,77.3,54.9,29.69,West,266,9.0,17.0,46,0.00,,---,0.00,VWS V14.00,2013-05-14 22:17:00,
2013-05-14 18:19:00,77.2,54.8,29.69,West,271,3.0,17.0,46,0.00,,---,0.00,VWS V14.00,2013-05-14 22:19:00,
2013-05-14 18:20:00,77.2,54.8,29.68,West,271,2.0,17.0,46,0.00,,---,0.00,VWS V14.00,2013-05-14 22:20:00,
2013-05-14 18:21:00,77.2,54.8,29.68,West,271,2.0,17.0,46,0.00,,---,0.00,VWS V14.00,2013-05-14 22:21:00,
2013-05-14 18:24:00,77.1,54.8,29.70,NW,310,10.0,17.0,46,0.00,,---,0.00,VWS V14.00,2013-05-14 22:24:00,
2013-05-14 18:25:00,77.1,55.3,29.71,NW,313,6.0,17.0,47,0.00,,---,0.00,VWS V14.00,2013-05-14 22:25:00,
2013-05-14 18:26:00,77.1,55.3,29.70,NW,315,5.0,17.0,47,0.00,,---,0.00,VWS V14.00,2013-05-14 22:26:00,
2013-05-14 18:27:00,77.0,55.2,29.70,NW,315,4.0,17.0,47,0.00,,---,0.00,VWS V14.00,2013-05-14 22:27:00,
2013-05-14 18:29:00,77.0,55.2,29.70,NW,315,1.0,3.0,47,0.00,,---,0.00,VWS V14.00,2013-05-14 22:29:00,
2013-05-14 18:30:00,77.1,54.8,29.70,NW,315,4.0,5.0,46,0.00,,---,0.00,VWS V14.00,2013-05-14 22:30:00,
2013-05-14 18:31:00,77.1,54.8,29.70,NW,315,3.0,5.0,46,0.00,,---,0.00,VWS V14.00,2013-05-14 22:31:00,
2013-05-14 18:32:00,77.1,54.8,29.70,NW,314,4.0,5.0,46,0.00,,---,0.00,VWS V14.00,2013-05-14 22:32:00,
2013-05-14 18:34:00,77.1,54.8,29.70,NW,314,4.0,5.0,46,0.00,,---,0.00,VWS V14.00,2013-05-14 22:34:00,
2013-05-14 18:35:00,77.1,54.8,29.70,NW,314,5.0,5.0,46,0.00,,---,0.00,VWS V14.00,2013-05-14 22:35:00,
2013-05-14 18:37:00,77.0,54.7,29.69,NW,314,6.0,6.0,46,0.00,,---,0.00,VWS V14.00,2013-05-14 22:37:00,
2013-05-14 18:39:00,76.9,54.6,29.69,NW,315,2.0,6.0,46,0.00,,---,0.00,VWS V14.00,2013-05-14 22:39:00,
2013-05-14 18:40:00,76.8,55.1,29.69,NW,315,4.0,6.0,47,0.00,,---,0.00,VWS V14.00,2013-05-14 22:40:00,
2013-05-14 18:41:00,76.8,55.1,29.69,NW,315,5.0,6.0,47,0.00,,---,0.00,VWS V14.00,2013-05-14 22:41:00,
2013-05-14 18:42:00,76.7,54.4,29.69,NW,321,1.0,6.0,46,0.00,,---,0.00,VWS V14.00,2013-05-14 22:42:00,
2013-05-14 18:43:00,76.7,54.4,29.69,NW,321,3.0,6.0,46,0.00,,---,0.00,VWS V14.00,2013-05-14 22:43:00,
2013-05-14 18:46:00,76.7,54.4,29.69,NW,321,2.0,6.0,46,0.00,,---,0.00,VWS V14.00,2013-05-14 22:46:00,
2013-05-14 18:47:00,76.7,55.0,29.69,NW,321,3.0,6.0,47,0.00,,---,0.00,VWS V14.00,2013-05-14 22:47:00,
2013-05-14 18:48:00,76.7,55.0,29.69,NW,320,3.0,6.0,47,0.00,,---,0.00,VWS V14.00,2013-05-14 22:48:00,
2013-05-14 18:51:00,76.8,55.1,29.69,NW,318,1.0,6.0,47,0.00,,---,0.00,VWS V14.00,2013-05-14 22:51:00,
2013-05-14 18:52:00,76.8,55.1,29.69,NW,319,2.0,6.0,47,0.00,,---,0.00,VWS V14.00,2013-05-14 22:52:00,
2013-05-14 18:53:00,76.9,54.6,29.68,NW,318,1.0,6.0,46,0.00,,---,0.00,VWS V14.00,2013-05-14 22:53:00,
2013-05-14 18:54:00,76.9,55.2,29.68,NW,319,0.0,6.0,47,0.00,,---,0.00,VWS V14.00,2013-05-14 22:54:00,
2013-05-14 18:56:00,76.8,55.1,29.69,NW,319,3.0,6.0,47,0.00,,---,0.00,VWS V14.00,2013-05-14 22:56:00,
2013-05-14 18:57:00,76.8,55.1,29.68,NW,318,3.0,6.0,47,0.00,,---,0.00,VWS V14.00,2013-05-14 22:57:00,
2013-05-14 18:59:00,76.9,55.2,29.68,NW,319,1.0,2.0,47,0.00,,---,0.00,VWS V14.00,2013-05-14 22:59:00,
2013-05-14 19:00:00,76.9,55.2,29.69,NW,319,3.0,5.0,47,0.00,,---,0.00,VWS V14.00,2013-05-14 23:00:00,
2013-05-14 19:02:00,76.9,55.2,29.69,NW,319,3.0,5.0,47,0.00,,---,0.00,VWS V14.00,2013-05-14 23:02:00,
2013-05-14 19:03:00,77.0,55.2,29.68,NW,319,3.0,5.0,47,0.00,,---,0.00,VWS V14.00,2013-05-14 23:03:00,
2013-05-14 19:04:00,77.0,55.2,29.68,NW,319,3.0,5.0,47,0.00,,---,0.00,VWS V14.00,2013-05-14 23:04:00,
2013-05-14 19:06:00,77.1,55.3,29.67,NW,319,2.0,5.0,47,0.00,,---,0.00,VWS V14.00,2013-05-14 23:06:00,
2013-05-14 19:07:00,77.1,54.8,29.68,NW,319,2.0,5.0,46,0.00,,---,0.00,VWS V14.00,2013-05-14 23:07:00,
2013-05-14 19:08:00,77.1,54.8,29.68,NW,319,2.0,5.0,46,0.00,,---,0.00,VWS V14.00,2013-05-14 23:08:00,
2013-05-14 19:11:00,77.1,55.3,29.69,NW,319,3.0,5.0,47,0.00,,---,0.00,VWS V14.00,2013-05-14 23:11:00,
2013-05-14 19:13:00,77.2,55.4,29.68,NW,319,3.0,5.0,47,0.00,,---,0.00,VWS V14.00,2013-05-14 23:13:00,
2013-05-14 19:15:00,77.2,54.2,29.68,West,279,3.0,6.0,45,0.00,,---,0.00,VWS V14.00,2013-05-14 23:15:00,
2013-05-14 19:16:00,77.2,54.2,29.68,West,279,3.0,6.0,45,0.00,,---,0.00,VWS V14.00,2013-05-14 23:16:00,
2013-05-14 19:17:00,77.1,54.8,29.68,West,279,0.0,6.0,46,0.00,,---,0.00,VWS V14.00,2013-05-14 23:17:00,
2013-05-14 19:18:00,77.1,54.8,29.67,West,278,5.0,6.0,46,0.00,,---,0.00,VWS V14.00,2013-05-14 23:18:00,
2013-05-14 19:20:00,77.1,54.8,29.67,West,278,1.0,6.0,46,0.00,,---,0.00,VWS V14.00,2013-05-14 23:20:00,
2013-05-14 19:21:00,77.1,54.8,29.67,West,278,2.0,6.0,46,0.00,,---,0.00,VWS V14.00,2013-05-14 23:21:00,
2013-05-14 19:24:00,77.1,54.8,29.67,West,278,2.0,6.0,46,0.00,,---,0.00,VWS V14.00,2013-05-14 23:24:00,
2013-05-14 19:25:00,77.1,54.8,29.67,West,278,0.0,6.0,46,0.00,,---,0.00,VWS V14.00,2013-05-14 23:25:00,
2013-05-14 19:28:00,77.2,54.8,29.66,West,277,0.0,0.0,46,0.00,,---,0.00,VWS V14.00,2013-05-14 23:28:00,
2013-05-14 19:29:00,77.3,54.9,29.66,West,277,3.0,3.0,46,0.00,,---,0.00,VWS V14.00,2013-05-14 23:29:00,
2013-05-14 19:31:00,77.3,55.5,29.66,SSE,160,6.0,7.0,47,0.00,,---,0.00,VWS V14.00,2013-05-14 23:31:00,
2013-05-14 19:32:00,77.3,55.5,29.66,SSE,168,2.0,7.0,47,0.00,,---,0.00,VWS V14.00,2013-05-14 23:32:00,
2013-05-14 19:34:00,77.3,55.5,29.66,SSE,168,0.0,7.0,47,0.00,,---,0.00,VWS V14.00,2013-05-14 23:34:00,
2013-05-14 19:35:00,77.3,55.5,29.66,South,169,0.0,7.0,47,0.00,,---,0.00,VWS V14.00,2013-05-14 23:35:00,
2013-05-14 19:36:00,77.3,54.9,29.66,SSE,168,0.0,7.0,46,0.00,,---,0.00,VWS V14.00,2013-05-14 23:36:00,
2013-05-14 19:37:00,77.4,55.0,29.66,South,169,0.0,7.0,46,0.00,,---,0.00,VWS V14.00,2013-05-14 23:37:00,
2013-05-14 19:38:00,77.4,55.0,29.66,South,169,2.0,7.0,46,0.00,,---,0.00,VWS V14.00,2013-05-14 23:38:00,
2013-05-14 19:41:00,77.4,55.0,29.67,South,190,3.0,7.0,46,0.00,,---,0.00,VWS V14.00,2013-05-14 23:41:00,
2013-05-14 19:42:00,77.3,54.3,29.67,SSW,200,5.0,7.0,45,0.00,,---,0.00,VWS V14.00,2013-05-14 23:42:00,
2013-05-14 19:44:00,77.2,54.8,29.67,SW,226,5.0,7.0,46,0.00,,---,0.00,VWS V14.00,2013-05-14 23:44:00,
2013-05-14 19:46:00,76.9,54.6,29.67,SW,231,3.0,7.0,46,0.00,,---,0.00,VWS V14.00,2013-05-14 23:46:00,
2013-05-14 19:47:00,76.9,54.6,29.67,SW,231,3.0,7.0,46,0.00,,---,0.00,VWS V14.00,2013-05-14 23:47:00,
2013-05-14 19:51:00,76.6,54.3,29.67,West,259,3.0,7.0,46,0.00,,---,0.00,VWS V14.00,2013-05-14 23:51:00,
2013-05-14 19:52:00,76.6,54.3,29.67,WSW,256,3.0,7.0,46,0.00,,---,0.00,VWS V14.00,2013-05-14 23:52:00,
2013-05-14 19:53:00,76.5,54.2,29.67,WSW,254,2.0,7.0,46,0.00,,---,0.00,VWS V14.00,2013-05-14 23:53:00,
2013-05-14 19:56:00,76.4,54.7,29.68,WSW,255,2.0,7.0,47,0.00,,---,0.00,VWS V14.00,2013-05-14 23:56:00,
2013-05-14 19:57:00,76.4,54.7,29.68,WSW,255,1.0,7.0,47,0.00,,---,0.00,VWS V14.00,2013-05-14 23:57:00,
2013-05-14 19:58:00,76.4,54.7,29.68,WSW,255,3.0,3.0,47,0.00,,---,0.00,VWS V14.00,2013-05-14 23:58:00,
2013-05-14 19:59:00,76.4,54.7,29.68,WSW,255,2.0,3.0,47,0.00,,---,0.00,VWS V14.00,2013-05-14 23:59:00,
2013-05-14 20:02:00,76.5,54.8,29.68,WSW,257,5.0,5.0,47,0.00,,---,0.00,VWS V14.00,2013-05-15 00:02:00,
2013-05-14 20:04:00,76.5,54.8,29.69,West,259,1.0,6.0,47,0.00,,---,0.00,VWS V14.00,2013-05-15 00:04:00,
2013-05-14 20:05:00,76.5,54.8,29.69,West,259,2.0,6.0,47,0.00,,---,0.00,VWS V14.00,2013-05-15 00:05:00,
2013-05-14 20:07:00,76.5,55.4,29.69,West,259,2.0,6.0,48,0.00,,---,0.00,VWS V14.00,2013-05-15 00:07:00,
2013-05-14 20:08:00,76.5,55.4,29.68,West,259,3.0,6.0,48,0.00,,---,0.00,VWS V14.00,2013-05-15 00:08:00,
2013-05-14 20:10:00,76.4,55.3,29.68,West,259,3.0,6.0,48,0.00,,---,0.00,VWS V14.00,2013-05-15 00:10:00,
2013-05-14 20:12:00,76.3,55.2,29.68,West,259,1.0,6.0,48,0.00,,---,0.00,VWS V14.00,2013-05-15 00:12:00,
2013-05-14 20:14:00,76.3,55.2,29.68,West,259,2.0,6.0,48,0.00,,---,0.00,VWS V14.00,2013-05-15 00:14:00,
2013-05-14 20:15:00,76.3,55.2,29.68,West,259,0.0,6.0,48,0.00,,---,0.00,VWS V14.00,2013-05-15 00:15:00,
2013-05-14 20:17:00,76.3,55.2,29.67,West,259,1.0,6.0,48,0.00,,---,0.00,VWS V14.00,2013-05-15 00:17:00,
2013-05-14 20:19:00,76.2,55.1,29.67,West,259,4.0,6.0,48,0.00,,---,0.00,VWS V14.00,2013-05-15 00:19:00,
2013-05-14 20:20:00,76.2,55.1,29.67,West,259,3.0,6.0,48,0.00,,---,0.00,VWS V14.00,2013-05-15 00:20:00,
2013-05-14 20:21:00,76.2,55.1,29.67,West,259,0.0,6.0,48,0.00,,---,0.00,VWS V14.00,2013-05-15 00:21:00,
2013-05-14 20:23:00,76.2,55.1,29.68,West,259,2.0,6.0,48,0.00,,---,0.00,VWS V14.00,2013-05-15 00:23:00,
2013-05-14 20:24:00,76.2,55.1,29.68,West,259,4.0,6.0,48,0.00,,---,0.00,VWS V14.00,2013-05-15 00:24:00,
2013-05-14 20:25:00,76.2,55.1,29.68,West,259,3.0,6.0,48,0.00,,---,0.00,VWS V14.00,2013-05-15 00:25:00,
2013-05-14 20:26:00,76.1,55.0,29.68,West,259,4.0,6.0,48,0.00,,---,0.00,VWS V14.00,2013-05-15 00:26:00,
2013-05-14 20:28:00,76.1,55.6,29.68,West,259,4.0,5.0,49,0.00,,---,0.00,VWS V14.00,2013-05-15 00:28:00,
2013-05-14 20:29:00,76.0,55.5,29.68,West,259,3.0,5.0,49,0.00,,---,0.00,VWS V14.00,2013-05-15 00:29:00,
2013-05-14 20:30:00,76.0,55.5,29.68,West,259,3.0,5.0,49,0.00,,---,0.00,VWS V14.00,2013-05-15 00:30:00,
2013-05-14 20:31:00,75.9,55.4,29.68,West,259,4.0,5.0,49,0.00,,---,0.00,VWS V14.00,2013-05-15 00:31:00,
2013-05-14 20:33:00,75.7,55.8,29.68,West,259,4.0,6.0,50,0.00,,---,0.00,VWS V14.00,2013-05-15 00:33:00,
2013-05-14 20:35:00,75.6,55.7,29.68,West,259,5.0,6.0,50,0.00,,---,0.00,VWS V14.00,2013-05-15 00:35:00,
2013-05-14 20:36:00,75.4,55.5,29.68,West,259,4.0,6.0,50,0.00,,---,0.00,VWS V14.00,2013-05-15 00:36:00,
2013-05-14 20:37:00,75.3,55.9,29.68,West,259,4.0,6.0,51,0.00,,---,0.00,VWS V14.00,2013-05-15 00:37:00,
2013-05-14 20:40:00,75.1,55.8,29.68,West,259,4.0,6.0,51,0.00,,---,0.00,VWS V14.00,2013-05-15 00:40:00,
2013-05-14 20:41:00,75.0,55.7,29.68,West,259,1.0,6.0,51,0.00,,---,0.00,VWS V14.00,2013-05-15 00:41:00,
2013-05-14 20:42:00,74.9,55.6,29.68,West,259,2.0,6.0,51,0.00,,---,0.00,VWS V14.00,2013-05-15 00:42:00,
2013-05-14 20:43:00,74.9,55.6,29.68,West,259,1.0,6.0,51,0.00,,---,0.00,VWS V14.00,2013-05-15 00:43:00,
2013-05-14 20:44:00,74.8,55.5,29.69,West,259,2.0,6.0,51,0.00,,---,0.00,VWS V14.00,2013-05-15 00:44:00,
2013-05-14 20:46:00,74.7,55.4,29.69,West,259,0.0,6.0,51,0.00,,---,0.00,VWS V14.00,2013-05-15 00:46:00,
2013-05-14 20:48:00,74.6,55.3,29.69,West,259,1.0,6.0,51,0.00,,---,0.00,VWS V14.00,2013-05-15 00:48:00,
2013-05-14 20:50:00,74.6,55.3,29.68,West,259,2.0,6.0,51,0.00,,---,0.00,VWS V14.00,2013-05-15 00:50:00,
2013-05-14 20:51:00,74.6,55.3,29.68,West,259,1.0,6.0,51,0.00,,---,0.00,VWS V14.00,2013-05-15 00:51:00,
2013-05-14 20:52:00,74.6,55.3,29.68,West,259,2.0,6.0,51,0.00,,---,0.00,VWS V14.00,2013-05-15 00:52:00,
2013-05-14 20:53:00,74.5,55.2,29.68,West,259,1.0,6.0,51,0.00,,---,0.00,VWS V14.00,2013-05-15 00:53:00,
2013-05-14 20:55:00,74.5,55.2,29.68,West,259,1.0,6.0,51,0.00,,---,0.00,VWS V14.00,2013-05-15 00:55:00,
2013-05-14 20:56:00,74.5,55.2,29.68,West,259,2.0,6.0,51,0.00,,---,0.00,VWS V14.00,2013-05-15 00:56:00,
2013-05-14 20:57:00,74.4,55.1,29.68,West,259,3.0,6.0,51,0.00,,---,0.00,VWS V14.00,2013-05-15 00:57:00,
2013-05-14 20:58:00,74.4,55.1,29.68,West,259,2.0,6.0,51,0.00,,---,0.00,VWS V14.00,2013-05-15 00:58:00,
2013-05-14 21:01:00,74.4,55.7,29.68,West,259,1.0,3.0,52,0.00,,---,0.00,VWS V14.00,2013-05-15 01:01:00,
2013-05-14 21:02:00,74.4,55.7,29.68,West,259,0.0,3.0,52,0.00,,---,0.00,VWS V14.00,2013-05-15 01:02:00,
2013-05-14 21:03:00,74.4,55.7,29.68,West,259,2.0,3.0,52,0.00,,---,0.00,VWS V14.00,2013-05-15 01:03:00,
2013-05-14 21:04:00,74.4,55.7,29.67,West,259,1.0,3.0,52,0.00,,---,0.00,VWS V14.00,2013-05-15 01:04:00,
2013-05-14 21:08:00,74.5,56.3,29.67,WSW,257,2.0,5.0,53,0.00,,---,0.00,VWS V14.00,2013-05-15 01:08:00,
2013-05-14 21:09:00,74.4,56.2,29.67,WSW,257,2.0,5.0,53,0.00,,---,0.00,VWS V14.00,2013-05-15 01:09:00,
2013-05-14 21:10:00,74.4,56.2,29.66,WSW,257,0.0,5.0,53,0.00,,---,0.00,VWS V14.00,2013-05-15 01:10:00,
2013-05-14 21:12:00,74.4,56.7,29.66,WSW,254,3.0,5.0,54,0.00,,---,0.00,VWS V14.00,2013-05-15 01:12:00,
2013-05-14 21:14:00,74.3,56.1,29.66,WSW,251,1.0,5.0,53,0.00,,---,0.00,VWS V14.00,2013-05-15 01:14:00,
2013-05-14 21:15:00,74.3,56.6,29.66,WSW,250,0.0,5.0,54,0.00,,---,0.00,VWS V14.00,2013-05-15 01:15:00,
2013-05-14 21:17:00,74.2,56.5,29.66,SW,236,0.0,5.0,54,0.00,,---,0.00,VWS V14.00,2013-05-15 01:17:00,
2013-05-14 21:20:00,74.1,56.4,29.66,SW,231,0.0,5.0,54,0.00,,---,0.00,VWS V14.00,2013-05-15 01:20:00,
2013-05-14 21:21:00,74.1,55.9,29.66,SW,232,4.0,5.0,53,0.00,,---,0.00,VWS V14.00,2013-05-15 01:21:00,
2013-05-14 21:22:00,74.0,55.8,29.66,SW,232,0.0,5.0,53,0.00,,---,0.00,VWS V14.00,2013-05-15 01:22:00,
2013-05-14 21:24:00,73.9,55.7,29.66,SW,235,2.0,6.0,53,0.00,,---,0.00,VWS V14.00,2013-05-15 01:24:00,
2013-05-14 21:26:00,73.8,55.6,29.66,SW,232,3.0,6.0,53,0.00,,---,0.00,VWS V14.00,2013-05-15 01:26:00,
2013-05-14 21:28:00,73.9,56.2,29.66,SW,232,0.0,6.0,54,0.00,,---,0.00,VWS V14.00,2013-05-15 01:28:00,
2013-05-14 21:31:00,73.8,55.6,29.66,SW,232,2.0,3.0,53,0.00,,---,0.00,VWS V14.00,2013-05-15 01:31:00,
2013-05-14 21:33:00,73.8,56.1,29.66,SW,232,0.0,3.0,54,0.00,,---,0.00,VWS V14.00,2013-05-15 01:33:00,
2013-05-14 21:35:00,73.9,56.2,29.66,SW,232,0.0,3.0,54,0.00,,---,0.00,VWS V14.00,2013-05-15 01:35:00,
2013-05-14 21:36:00,73.9,56.2,29.66,SW,232,0.0,3.0,54,0.00,,---,0.00,VWS V14.00,2013-05-15 01:36:00,
2013-05-14 21:38:00,73.9,56.2,29.66,SW,232,0.0,3.0,54,0.00,,---,0.00,VWS V14.00,2013-05-15 01:38:00,
2013-05-14 21:39:00,73.9,56.2,29.65,SW,232,0.0,3.0,54,0.00,,---,0.00,VWS V14.00,2013-05-15 01:39:00,
2013-05-14 21:41:00,74.0,56.8,29.65,South,187,5.0,5.0,55,0.00,,---,0.00,VWS V14.00,2013-05-15 01:41:00,
2013-05-14 21:43:00,74.0,56.8,29.64,South,178,6.0,10.0,55,0.00,,---,0.00,VWS V14.00,2013-05-15 01:43:00,
2013-05-14 21:44:00,73.8,57.1,29.63,South,180,7.0,10.0,56,0.00,,---,0.00,VWS V14.00,2013-05-15 01:44:00,
2013-05-14 21:47:00,73.4,57.3,29.64,South,183,4.0,10.0,57,0.00,,---,0.00,VWS V14.00,2013-05-15 01:47:00,
2013-05-14 21:48:00,73.3,56.7,29.64,South,188,4.0,10.0,56,0.00,,---,0.00,VWS V14.00,2013-05-15 01:48:00,
2013-05-14 21:50:00,73.1,56.0,29.65,SSW,211,4.0,10.0,55,0.00,,---,0.00,VWS V14.00,2013-05-15 01:50:00,
2013-05-14 21:51:00,73.1,56.0,29.65,SSW,211,2.0,10.0,55,0.00,,---,0.00,VWS V14.00,2013-05-15 01:51:00,
2013-05-14 21:53:00,72.9,56.3,29.65,SSW,206,1.0,10.0,56,0.00,,---,0.00,VWS V14.00,2013-05-15 01:53:00,
2013-05-14 21:55:00,72.8,56.7,29.65,SSW,206,0.0,10.0,57,0.00,,---,0.00,VWS V14.00,2013-05-15 01:55:00,
2013-05-14 21:56:00,72.8,57.2,29.65,SSW,205,3.0,10.0,58,0.00,,---,0.00,VWS V14.00,2013-05-15 01:56:00,
2013-05-14 21:59:00,72.8,57.2,29.65,SSW,203,0.0,0.0,58,0.00,,---,0.00,VWS V14.00,2013-05-15 01:59:00,
2013-05-14 22:01:00,72.8,56.2,29.65,SSW,206,4.0,4.0,56,0.00,,---,0.00,VWS V14.00,2013-05-15 02:01:00,
2013-05-14 22:02:00,72.7,56.1,29.65,SSW,207,0.0,5.0,56,0.00,,---,0.00,VWS V14.00,2013-05-15 02:02:00,
2013-05-14 22:05:00,72.6,56.0,29.65,SSW,208,0.0,5.0,56,0.00,,---,0.00,VWS V14.00,2013-05-15 02:05:00,
2013-05-14 22:07:00,72.6,56.5,29.65,SSW,207,0.0,5.0,57,0.00,,---,0.00,VWS V14.00,2013-05-15 02:07:00,
2013-05-14 22:08:00,72.6,56.5,29.65,SSW,208,0.0,5.0,57,0.00,,---,0.00,VWS V14.00,2013-05-15 02:08:00,
2013-05-14 22:10:00,72.6,56.5,29.65,SSW,208,0.0,5.0,57,0.00,,---,0.00,VWS V14.00,2013-05-15 02:10:00,
2013-05-14 22:12:00,72.6,56.5,29.64,South,187,5.0,6.0,57,0.00,,---,0.00,VWS V14.00,2013-05-15 02:12:00,
2013-05-14 22:13:00,72.6,57.5,29.64,South,180,4.0,6.0,59,0.00,,---,0.00,VWS V14.00,2013-05-15 02:13:00,
2013-05-14 22:14:00,72.5,56.9,29.64,South,178,1.0,6.0,58,0.00,,---,0.00,VWS V14.00,2013-05-15 02:14:00,
2013-05-14 22:16:00,72.3,56.7,29.65,South,171,4.0,6.0,58,0.00,,---,0.00,VWS V14.00,2013-05-15 02:16:00,
2013-05-14 22:18:00,72.2,56.1,29.64,South,169,0.0,6.0,57,0.00,,---,0.00,VWS V14.00,2013-05-15 02:18:00,
2013-05-14 22:20:00,72.2,56.1,29.64,South,169,1.0,6.0,57,0.00,,---,0.00,VWS V14.00,2013-05-15 02:20:00,
2013-05-14 22:22:00,72.1,56.0,29.64,South,170,0.0,6.0,57,0.00,,---,0.00,VWS V14.00,2013-05-15 02:22:00,
2013-05-14 22:23:00,72.1,56.0,29.64,South,169,1.0,6.0,57,0.00,,---,0.00,VWS V14.00,2013-05-15 02:23:00,
2013-05-14 22:24:00,72.0,56.4,29.64,South,169,4.0,6.0,58,0.00,,---,0.00,VWS V14.00,2013-05-15 02:24:00,
2013-05-14 22:26:00,71.6,56.1,29.63,SSE,150,5.0,7.0,58,0.00,,---,0.00,VWS V14.00,2013-05-15 02:26:00,
2013-05-14 22:28:00,71.3,56.2,29.62,SE,141,5.0,7.0,59,0.00,,---,0.00,VWS V14.00,2013-05-15 02:28:00,
2013-05-14 22:30:00,71.0,56.0,29.62,SE,142,5.0,6.0,59,0.00,,---,0.00,VWS V14.00,2013-05-15 02:30:00,
2013-05-14 22:31:00,71.0,56.0,29.62,SE,140,4.0,7.0,59,0.00,,---,0.00,VWS V14.00,2013-05-15 02:31:00,
2013-05-14 22:32:00,71.0,55.5,29.62,SE,140,4.0,7.0,58,0.00,,---,0.00,VWS V14.00,2013-05-15 02:32:00,
2013-05-14 22:35:00,71.1,55.6,29.63,SE,140,0.0,7.0,58,0.00,,---,0.00,VWS V14.00,2013-05-15 02:35:00,
2013-05-14 22:36:00,71.1,55.6,29.63,SE,140,0.0,7.0,58,0.00,,---,0.00,VWS V14.00,2013-05-15 02:36:00,
2013-05-14 22:37:00,71.2,55.7,29.64,SE,140,0.0,7.0,58,0.00,,---,0.00,VWS V14.00,2013-05-15 02:37:00,
2013-05-14 22:39:00,71.2,55.2,29.64,SE,140,3.0,7.0,57,0.00,,---,0.00,VWS V14.00,2013-05-15 02:39:00,
2013-05-14 22:42:00,71.5,56.0,29.64,SE,132,2.0,7.0,58,0.00,,---,0.00,VWS V14.00,2013-05-15 02:42:00,
2013-05-14 22:44:00,71.5,56.0,29.64,SE,132,1.0,7.0,58,0.00,,---,0.00,VWS V14.00,2013-05-15 02:44:00,
2013-05-14 22:46:00,71.6,55.6,29.64,SE,132,1.0,7.0,57,0.00,,---,0.00,VWS V14.00,2013-05-15 02:46:00,
2013-05-14 22:47:00,71.7,55.7,29.64,SE,132,0.0,7.0,57,0.00,,---,0.00,VWS V14.00,2013-05-15 02:47:00,
2013-05-14 22:48:00,71.7,55.2,29.64,SE,132,0.0,7.0,56,0.00,,---,0.00,VWS V14.00,2013-05-15 02:48:00,
2013-05-14 22:49:00,71.8,55.3,29.63,SE,132,0.0,7.0,56,0.00,,---,0.00,VWS V14.00,2013-05-15 02:49:00,
2013-05-14 22:51:00,72.0,55.0,29.63,SE,132,0.0,7.0,55,0.00,,---,0.00,VWS V14.00,2013-05-15 02:51:00,
2013-05-14 22:53:00,72.1,55.6,29.63,SE,132,0.0,7.0,56,0.00,,---,0.00,VWS V14.00,2013-05-15 02:53:00,
2013-05-14 22:54:00,72.1,55.6,29.63,SE,132,0.0,7.0,56,0.00,,---,0.00,VWS V14.00,2013-05-15 02:54:00,
2013-05-14 22:55:00,72.1,55.6,29.63,SE,134,4.0,7.0,56,0.00,,---,0.00,VWS V14.00,2013-05-15 02:55:00,
2013-05-14 22:56:00,72.1,55.6,29.63,SE,136,3.0,7.0,56,0.00,,---,0.00,VWS V14.00,2013-05-15 02:56:00,
2013-05-14 22:57:00,72.1,55.6,29.64,SE,138,4.0,7.0,56,0.00,,---,0.00,VWS V14.00,2013-05-15 02:57:00,
2013-05-14 23:00:00,72.3,55.2,29.64,SSE,150,4.0,5.0,55,0.00,,---,0.00,VWS V14.00,2013-05-15 03:00:00,
2013-05-14 23:01:00,72.3,55.2,29.64,SSE,162,4.0,5.0,55,0.00,,---,0.00,VWS V14.00,2013-05-15 03:01:00,
2013-05-14 23:02:00,72.3,55.2,29.64,SSE,164,3.0,5.0,55,0.00,,---,0.00,VWS V14.00,2013-05-15 03:02:00,
2013-05-14 23:06:00,72.4,56.3,29.62,South,184,3.0,6.0,57,0.00,,---,0.00,VWS V14.00,2013-05-15 03:06:00,
2013-05-14 23:07:00,72.4,56.3,29.62,South,184,2.0,6.0,57,0.00,,---,0.00,VWS V14.00,2013-05-15 03:07:00,
2013-05-14 23:08:00,72.4,56.3,29.61,SSW,199,2.0,9.0,57,0.00,,---,0.00,VWS V14.00,2013-05-15 03:08:00,
2013-05-14 23:12:00,72.3,56.7,29.61,South,188,2.0,9.0,58,0.00,,---,0.00,VWS V14.00,2013-05-15 03:12:00,
2013-05-14 23:13:00,72.3,56.7,29.61,South,170,4.0,9.0,58,0.00,,---,0.00,VWS V14.00,2013-05-15 03:13:00,
2013-05-14 23:14:00,72.3,56.2,29.61,South,188,4.0,9.0,57,0.00,,---,0.00,VWS V14.00,2013-05-15 03:14:00,
2013-05-14 23:19:00,72.5,55.4,29.62,South,180,2.0,9.0,55,0.00,,---,0.00,VWS V14.00,2013-05-15 03:19:00,
2013-05-14 23:20:00,72.5,55.4,29.62,South,182,4.0,9.0,55,0.00,,---,0.00,VWS V14.00,2013-05-15 03:20:00,
2013-05-14 23:21:00,72.5,55.4,29.62,WSW,242,3.0,9.0,55,0.00,,---,0.00,VWS V14.00,2013-05-15 03:21:00,
2013-05-14 23:24:00,72.5,55.4,29.64,WSW,248,0.0,9.0,55,0.00,,---,0.00,VWS V14.00,2013-05-15 03:24:00,
2013-05-14 23:25:00,72.4,55.3,29.64,WSW,248,0.0,9.0,55,0.00,,---,0.00,VWS V14.00,2013-05-15 03:25:00,
2013-05-14 23:27:00,72.4,55.3,29.64,WSW,248,2.0,9.0,55,0.00,,---,0.00,VWS V14.00,2013-05-15 03:27:00,
2013-05-14 23:30:00,72.3,55.2,29.64,WSW,248,0.0,2.0,55,0.00,,---,0.00,VWS V14.00,2013-05-15 03:30:00,
2013-05-14 23:31:00,72.2,55.2,29.64,WSW,248,0.0,2.0,55,0.00,,---,0.00,VWS V14.00,2013-05-15 03:31:00,
2013-05-14 23:34:00,72.1,55.6,29.63,WSW,248,0.0,2.0,56,0.00,,---,0.00,VWS V14.00,2013-05-15 03:34:00,
2013-05-14 23:36:00,72.0,55.5,29.63,WSW,248,0.0,2.0,56,0.00,,---,0.00,VWS V14.00,2013-05-15 03:36:00,
2013-05-14 23:37:00,71.9,55.4,29.63,WSW,248,0.0,2.0,56,0.00,,---,0.00,VWS V14.00,2013-05-15 03:37:00,
2013-05-14 23:38:00,71.8,55.3,29.64,WSW,248,0.0,2.0,56,0.00,,---,0.00,VWS V14.00,2013-05-15 03:38:00,
2013-05-14 23:42:00,71.5,56.0,29.64,WSW,249,0.0,2.0,58,0.00,,---,0.00,VWS V14.00,2013-05-15 03:42:00,
2013-05-14 23:43:00,71.3,55.8,29.63,WSW,249,0.0,2.0,58,0.00,,---,0.00,VWS V14.00,2013-05-15 03:43:00,
2013-05-14 23:45:00,71.2,55.7,29.63,WSW,249,0.0,2.0,58,0.00,,---,0.00,VWS V14.00,2013-05-15 03:45:00,
2013-05-14 23:48:00,71.3,56.7,29.63,South,170,6.0,10.0,60,0.00,,---,0.00,VWS V14.00,2013-05-15 03:48:00,
2013-05-14 23:49:00,71.3,55.8,29.63,South,171,4.0,10.0,58,0.00,,---,0.00,VWS V14.00,2013-05-15 03:49:00,
2013-05-14 23:50:00,71.5,56.0,29.63,South,173,3.0,10.0,58,0.00,,---,0.00,VWS V14.00,2013-05-15 03:50:00,
2013-05-14 23:51:00,71.6,56.1,29.63,South,173,2.0,10.0,58,0.00,,---,0.00,VWS V14.00,2013-05-15 03:51:00,
2013-05-14 23:53:00,71.8,56.2,29.63,South,173,4.0,10.0,58,0.00,,---,0.00,VWS V14.00,2013-05-15 03:53:00,
2013-05-14 23:54:00,71.8,55.8,29.63,South,175,2.0,10.0,57,0.00,,---,0.00,VWS V14.00,2013-05-15 03:54:00,
2013-05-14 23:55:00,71.9,55.9,29.63,South,182,4.0,10.0,57,0.00,,---,0.00,VWS V14.00,2013-05-15 03:55:00,
2013-05-14 23:56:00,71.9,55.9,29.63,South,183,3.0,10.0,57,0.00,,---,0.00,VWS V14.00,2013-05-15 03:56:00,
2013-05-14 23:58:00,71.8,55.8,29.63,South,183,0.0,10.0,57,0.00,,---,0.00,VWS V14.00,2013-05-15 03:58:00,
2013-05-14 23:59:00,71.9,55.9,29.63,South,183,0.0,0.0,57,0.00,,---,0.00,VWS V14.00,2013-05-15 03:59:00,